GFSNE_sfc_thetae_054.txt.gz
Theta_e
277 277 278 278 278 278 278 277 276 271 271 273 275 276 276 277 278 278 277 280 283 284 285 286 287 288 289 290 291 293 294 295 296 298 298 299 301 301
277 277 277 277 276 276 276 276 275 273 271 274 274 274 275 277 277 276 276 280 280 282 283 284 286 287 287 288 288 290 291 292 293 294 295 296 298 299
276 276 276 276 274 274 274 275 274 273 271 272 273 275 274 274 275 275 276 276 276 280 282 284 285 285 285 286 287 287 288 289 289 291 292 293 295 298
276 275 275 276 274 274 273 273 273 272 271 270 273 273 273 274 274 274 276 277 276 279 283 283 284 284 284 285 285 286 286 286 286 287 288 290 291 295
275 275 275 274 274 273 272 272 272 274 272 271 271 273 274 274 274 275 275 276 277 280 281 282 282 283 284 284 284 284 284 284 285 286 287 288 290 292
275 275 275 274 274 273 273 272 273 272 272 271 271 272 273 275 275 274 273 275 275 277 279 280 281 281 282 282 283 282 282 283 284 285 286 286 287 288
275 276 275 275 277 276 274 273 272 271 271 271 271 272 272 273 272 273 272 273 274 275 274 276 275 275 277 280 280 281 282 283 284 284 285 286 286 287
274 275 275 274 276 279 280 280 278 269 260 265 272 273 272 272 272 272 272 270 268 274 272 272 274 274 276 277 280 282 282 283 284 284 284 285 285 286
275 275 275 275 274 273 276 278 278 278 279 277 274 273 272 272 273 272 271 270 269 271 271 269 273 273 275 277 280 281 282 282 283 284 285 284 284 284
274 274 274 274 274 273 273 272 273 274 275 276 275 274 274 276 274 272 271 269 269 270 272 267 270 270 273 273 278 279 281 282 283 283 282 283 283 283
274 274 274 273 276 278 275 271 272 274 278 279 279 279 278 277 275 271 264 264 264 266 269 268 269 268 270 271 274 278 279 279 280 280 281 282 282 282
273 274 276 275 277 278 275 272 271 271 272 268 269 270 271 270 273 270 268 264 264 263 269 266 267 268 265 270 272 272 273 276 278 279 280 280 281 278
271 271 273 277 279 279 280 275 273 274 270 264 263 265 266 267 268 269 270 268 265 264 268 269 267 266 266 266 268 271 272 273 273 274 277 278 279 279
270 272 272 277 278 279 279 280 280 279 260 258 258 263 265 266 267 268 269 269 269 268 269 269 266 266 265 264 264 269 270 272 273 273 274 276 278 278
276 275 277 278 279 279 280 280 276 265 260 257 260 263 265 267 268 267 267 267 267 267 268 268 267 267 267 265 264 266 268 269 272 272 273 273 274 274
278 276 277 279 279 277 271 275 271 267 266 264 264 265 266 265 264 265 264 264 263 263 267 268 269 268 265 265 266 264 267 266 269 271 272 273 274 275
271 261 262 266 269 269 266 266 267 266 265 264 261 261 263 263 263 264 263 262 260 261 262 264 267 267 267 266 263 265 265 266 269 271 271 271 273 274
273 270 267 267 267 268 268 268 267 265 265 263 260 260 260 261 260 261 261 260 259 260 261 262 264 263 263 263 270 266 267 267 269 270 270 269 270 273
274 272 272 270 267 268 269 267 265 264 265 263 263 261 261 260 258 258 259 259 258 260 260 262 262 262 259 258 263 271 268 267 268 269 271 271 270 273
261 258 260 262 264 265 266 265 264 263 261 261 259 258 255 256 256 256 257 257 258 258 258 261 261 262 261 260 261 264 271 269 270 270 270 274 275 278
253 253 254 255 260 261 262 261 261 259 257 256 255 254 253 252 254 255 257 258 258 257 257 260 262 265 264 264 260 262 266 272 273 270 270 271 267 269
250 248 251 250 255 257 258 257 256 254 254 256 255 254 254 252 255 255 255 256 256 257 259 261 262 262 260 261 260 262 264 267 270 272 274 274 271 269
250 249 251 252 256 256 254 254 254 256 257 257 255 252 252 250 252 256 256 255 255 256 258 258 260 261 260 260 260 261 262 263 264 265 268 273 275 275

GFSNE_sfc_thetae_057.txt.gz
Theta_e
277 278 278 277 278 277 277 277 275 271 271 273 274 276 276 276 277 277 276 279 283 284 285 286 287 288 289 289 290 291 292 292 292 293 294 295 296 298
277 277 277 276 276 276 276 276 275 273 271 274 274 274 275 276 277 276 276 280 280 282 284 285 286 287 287 288 288 289 290 291 291 292 292 293 293 294
276 276 276 276 274 274 274 274 274 273 271 272 273 274 273 274 275 276 276 276 277 281 283 284 285 285 286 286 287 288 288 288 289 290 289 290 291 292
276 275 275 276 274 273 273 273 273 273 271 270 272 272 272 274 274 274 276 278 277 279 283 283 284 284 284 285 285 285 286 286 286 286 287 288 290 291
275 275 275 274 273 273 272 272 272 274 272 271 271 272 273 274 274 275 275 275 277 279 281 281 281 282 283 283 283 283 283 284 284 285 286 287 288 289
275 275 275 274 274 273 273 272 273 272 272 271 271 271 273 274 274 273 272 274 274 276 277 278 279 279 280 281 281 281 281 283 284 285 285 286 286 287
275 276 275 275 278 276 274 273 272 272 271 270 271 271 272 273 272 273 271 273 273 273 273 273 273 273 274 277 278 279 282 283 284 284 284 285 285 286
274 275 275 275 278 280 281 281 277 270 264 263 271 272 273 273 273 272 272 270 268 273 271 270 272 272 273 274 278 280 280 281 282 283 284 286 284 284
275 275 275 275 275 274 277 280 280 281 281 276 274 274 273 273 273 272 272 270 269 271 269 267 271 270 272 274 277 278 280 281 282 282 282 283 283 283
275 275 275 275 274 273 273 272 273 273 274 275 275 275 274 275 276 274 271 267 268 269 270 265 269 269 271 271 276 277 279 280 279 280 281 282 282 283
276 275 274 274 276 279 275 271 272 273 277 280 281 281 281 280 278 272 263 257 263 266 269 267 268 267 269 269 272 276 277 277 278 279 280 280 281 281
275 275 277 275 277 279 276 271 270 272 273 271 272 274 274 271 274 271 268 262 263 261 269 266 266 267 264 268 270 270 271 274 276 277 278 279 280 277
274 274 274 278 280 281 281 276 274 276 273 274 268 268 267 267 268 269 269 268 264 264 268 269 266 265 264 264 267 269 270 271 271 273 276 277 279 279
274 274 273 278 279 280 280 281 281 281 272 264 263 264 265 266 267 268 269 269 268 267 268 268 265 265 263 263 263 267 268 269 270 270 272 275 277 278
276 276 278 279 280 280 281 281 280 273 267 263 264 266 266 267 268 267 267 267 267 267 268 267 266 266 265 264 263 264 266 267 269 270 270 271 272 274
279 276 277 280 280 279 275 276 275 272 270 268 266 266 266 264 263 265 263 263 262 261 266 267 267 266 264 264 264 263 265 264 267 268 270 271 273 274
270 261 262 267 270 271 272 271 271 271 268 268 267 263 263 263 262 262 262 259 258 259 260 263 265 266 265 265 262 263 264 265 268 269 269 268 271 273
269 268 268 268 269 268 268 268 268 267 267 267 265 263 262 261 260 259 260 257 257 258 259 261 261 261 262 261 268 265 265 266 267 267 269 269 269 273
266 264 262 262 263 265 266 267 267 268 267 266 265 262 261 259 257 256 258 258 257 257 258 260 259 260 257 257 262 269 265 265 266 267 269 269 269 272
256 254 253 253 255 256 258 261 263 261 262 263 262 259 258 257 252 254 257 255 256 256 256 257 258 260 259 258 259 262 269 266 267 267 267 269 271 276
248 249 249 249 251 252 254 254 257 258 259 258 256 255 256 254 250 255 256 257 257 255 254 256 261 264 262 261 257 258 263 270 270 267 268 268 268 267
247 246 247 246 246 248 252 251 250 250 251 254 255 255 255 255 255 254 255 256 253 255 256 258 261 260 257 259 258 258 261 264 267 270 272 272 269 267
246 245 245 245 245 248 249 248 247 250 250 255 255 254 254 252 254 255 256 254 255 254 253 256 258 258 256 257 258 259 258 260 262 263 265 270 272 273

GFSNE_sfc_thetae_060.txt.gz
Theta_e
278 278 278 277 278 278 278 277 274 271 272 273 274 276 276 276 277 277 276 279 283 284 286 287 288 288 289 289 290 291 292 292 292 292 293 293 294 294
278 278 277 277 277 277 277 276 276 273 271 273 274 274 275 276 277 277 276 280 280 282 284 285 287 287 287 288 288 289 289 290 290 291 291 291 292 292
277 277 277 277 275 275 275 275 274 274 271 272 273 273 273 273 275 275 276 276 276 280 282 284 285 285 285 286 286 286 287 287 288 289 289 289 290 291
277 277 275 276 274 273 273 273 273 273 272 270 272 272 272 273 274 274 276 277 276 279 282 283 283 283 283 284 284 284 284 284 285 286 287 288 289 290
277 276 275 275 273 273 272 272 272 274 272 271 270 272 272 274 274 275 275 274 276 279 280 280 280 281 281 282 282 282 282 282 283 284 286 287 288 288
276 276 275 275 274 273 273 272 272 271 271 271 270 271 272 274 274 273 272 274 274 276 277 277 278 278 279 280 280 279 280 281 283 283 283 284 285 286
276 276 275 275 278 276 274 273 272 271 271 270 270 270 271 272 272 273 272 272 273 274 272 273 273 273 273 276 276 278 280 281 282 283 284 285 284 285
275 275 275 276 278 281 281 280 276 271 264 265 271 271 272 273 272 272 271 271 269 273 271 270 272 271 272 273 277 279 280 280 281 282 282 282 283 284
276 276 275 276 275 275 279 282 282 283 281 274 273 273 273 273 273 272 272 271 270 272 270 267 271 269 272 273 276 278 279 280 280 280 280 281 281 282
276 276 275 275 275 274 273 273 274 274 276 276 275 275 274 275 275 275 273 267 269 270 270 265 269 268 271 271 276 277 278 278 278 278 279 280 280 281
276 276 275 275 277 280 275 272 273 274 277 280 281 281 282 283 282 271 260 257 264 267 269 266 268 267 268 269 271 275 276 276 276 278 278 279 280 280
277 276 278 277 279 280 277 274 272 273 272 271 274 276 278 274 277 274 269 260 263 261 268 265 266 267 263 268 269 269 270 273 275 275 276 277 278 276
277 276 276 280 282 282 282 277 274 275 273 275 272 271 270 270 270 270 270 268 265 264 268 268 266 265 263 263 266 268 268 270 269 271 274 275 277 277
276 276 276 279 281 282 281 282 282 281 279 270 267 268 268 268 269 269 269 269 269 268 268 268 265 264 262 262 262 266 267 268 269 269 270 273 275 276
278 278 279 280 281 281 282 282 280 279 275 269 267 268 269 270 269 268 268 267 267 267 267 267 266 265 264 262 262 263 265 266 267 268 268 269 271 272
280 274 278 280 280 279 274 275 274 274 273 271 271 270 268 266 266 266 264 262 259 260 264 266 266 266 263 263 263 262 264 263 266 267 269 270 270 272
265 260 262 264 266 267 268 270 271 271 270 269 269 268 266 265 265 264 263 260 256 257 259 262 265 265 264 263 260 262 263 264 267 267 267 266 269 272
262 259 261 264 267 267 266 265 264 264 264 264 264 264 264 264 263 262 261 257 254 256 258 260 260 259 258 259 267 263 264 264 266 266 267 267 267 270
263 258 258 260 260 262 262 261 261 262 261 261 263 264 264 262 261 260 259 257 254 258 258 260 257 256 255 255 260 268 264 264 265 265 267 267 266 268
256 258 258 254 254 254 254 255 256 256 257 258 260 258 257 258 257 257 257 254 256 257 256 258 256 257 258 256 258 261 268 264 264 264 265 267 270 274
249 249 248 248 249 249 249 249 249 251 252 250 250 252 254 254 252 254 256 257 258 257 255 257 259 262 261 257 253 256 262 268 268 265 267 267 265 266
246 247 246 244 245 245 245 246 247 246 246 246 247 248 250 251 252 251 255 256 256 257 257 258 258 259 256 256 256 257 259 262 266 269 270 270 267 264
246 245 244 243 243 243 244 244 244 247 245 246 246 247 248 247 248 255 255 256 256 256 255 254 255 256 255 256 257 258 257 259 261 261 263 269 270 270

GFSNE_sfc_thetae_063.txt.gz
Theta_e
283 282 282 282 282 283 282 281 281 277 277 279 279 281 281 281 280 281 280 281 284 285 286 287 288 289 289 289 290 290 291 291 291 291 291 292 292 292
281 281 280 281 281 281 281 281 280 279 278 279 280 280 280 279 280 280 280 281 281 283 284 285 287 287 287 287 288 288 289 289 289 289 289 290 291 291
281 280 280 280 279 279 279 279 279 279 278 278 278 278 278 278 279 279 280 280 280 281 282 284 285 285 285 285 286 286 286 286 287 287 288 289 289 290
280 279 278 278 278 278 278 277 278 278 277 275 276 277 276 278 278 278 278 279 279 279 282 283 283 283 283 283 284 284 284 283 284 285 286 287 288 288
279 279 278 278 277 277 277 276 277 276 276 275 275 276 276 277 277 278 278 279 278 280 281 280 281 281 281 282 282 282 281 282 283 284 284 285 286 287
279 279 278 278 278 277 276 276 276 275 275 274 274 274 275 277 277 276 276 278 277 278 278 278 279 279 279 280 279 279 280 282 282 283 283 284 284 284
278 278 278 278 279 278 277 276 276 275 275 274 274 274 275 275 275 276 275 276 277 277 276 277 276 275 276 277 276 278 280 281 282 282 282 282 282 283
277 277 278 279 280 282 282 280 278 275 273 274 275 274 275 275 276 275 275 274 273 277 274 274 275 274 275 275 277 279 280 280 280 281 281 281 281 282
277 277 277 277 278 278 282 283 283 282 280 276 275 276 276 276 276 276 275 274 273 275 272 271 274 273 274 274 277 278 278 279 279 279 280 280 280 281
278 277 277 277 277 276 276 276 277 278 280 281 280 279 278 278 278 277 276 274 273 273 272 268 273 271 273 273 276 276 277 278 278 278 279 279 279 280
278 277 277 277 279 281 277 275 275 276 278 281 282 282 282 283 283 279 272 271 272 273 271 269 270 270 271 271 273 275 276 276 276 277 277 278 279 279
279 278 279 278 280 281 280 277 275 276 276 276 276 278 280 279 281 278 275 271 270 267 271 268 269 268 266 270 271 271 271 273 275 275 276 276 277 276
280 279 278 282 283 283 283 279 278 279 277 278 276 275 275 276 275 275 274 273 270 268 271 270 268 267 266 266 268 269 270 271 271 271 273 274 276 276
281 280 279 281 283 283 283 284 284 283 281 280 277 275 273 272 273 273 273 272 272 270 271 270 266 266 265 264 264 268 269 270 270 269 270 273 274 275
283 282 281 282 283 283 283 283 282 280 279 277 275 273 272 273 273 271 271 271 270 270 269 268 267 266 265 264 263 265 266 267 269 269 269 270 271 272
284 281 282 282 281 280 277 278 276 276 275 274 273 273 272 270 269 270 268 267 266 265 266 267 267 266 264 265 264 263 265 264 267 268 269 269 270 272
270 270 271 272 273 272 271 271 272 272 271 271 270 269 269 268 268 268 266 265 263 263 263 264 265 265 265 264 262 264 264 265 268 268 267 267 269 271
269 268 268 268 269 269 268 268 268 268 268 267 267 266 266 265 265 266 264 262 261 261 261 262 262 262 261 263 267 264 266 266 267 267 267 266 267 270
268 266 267 266 265 265 265 264 264 264 263 263 263 263 264 263 263 262 262 261 260 260 261 261 261 259 257 257 263 268 264 265 265 265 266 266 266 269
262 262 262 262 261 261 261 261 260 260 261 261 260 260 259 260 260 260 260 259 259 259 259 259 260 260 259 259 259 263 267 265 265 265 265 268 270 273
257 258 258 257 257 257 257 256 255 257 257 257 257 256 257 257 257 257 258 257 258 258 257 258 262 263 261 260 259 261 264 268 268 266 267 266 266 267
256 256 254 253 254 254 254 254 254 254 255 255 255 255 256 255 257 255 255 256 257 258 258 260 261 260 260 260 259 260 262 264 266 268 268 269 266 263
254 254 253 252 252 252 252 253 252 255 253 253 253 254 253 254 254 255 256 255 256 256 257 257 258 259 259 259 258 260 259 261 263 263 265 268 269 269

GFSNE_sfc_thetae_069.txt.gz
Theta_e
296 292 290 289 289 288 288 288 285 280 280 284 283 286 286 286 285 284 284 285 285 287 287 288 288 290 291 291 291 292 293 293 293 293 292 292 292 293
291 289 288 287 287 287 286 285 286 285 283 284 284 284 285 283 284 282 283 284 285 286 286 286 287 288 289 289 290 291 291 291 291 291 290 291 291 292
288 287 286 286 285 284 284 284 284 284 284 281 283 284 283 282 282 282 284 283 283 285 286 286 286 287 288 288 288 289 289 289 289 288 288 289 290 290
286 285 283 283 283 283 284 283 283 283 283 281 281 280 280 283 283 282 281 282 282 284 286 286 286 286 286 286 287 287 286 286 285 285 286 287 288 288
284 283 282 282 281 282 282 282 282 280 281 281 280 280 280 281 281 281 282 282 283 285 286 285 285 285 285 285 285 285 284 283 283 284 285 285 286 286
284 283 282 281 282 282 281 281 281 280 280 279 279 279 279 281 280 278 279 281 281 282 283 284 284 283 284 285 284 283 282 282 283 284 283 283 284 284
282 282 282 283 285 283 280 280 280 280 280 279 278 278 278 279 278 280 278 279 280 281 281 280 279 280 280 282 281 282 282 283 283 282 282 282 282 282
281 281 281 282 284 284 283 284 282 281 280 280 279 278 279 279 279 279 278 277 276 281 278 278 280 279 279 279 282 282 282 282 281 281 281 281 281 281
281 281 281 282 281 281 284 284 284 284 284 281 279 280 279 279 280 279 279 278 277 279 278 276 279 277 278 278 281 281 281 280 280 280 280 280 280 280
281 281 282 280 280 280 280 281 281 282 282 282 281 280 280 281 282 281 279 278 278 279 279 273 276 275 277 277 280 280 280 280 279 279 279 279 279 279
281 283 283 281 283 283 279 278 279 280 283 285 285 286 286 286 285 281 279 278 277 277 279 276 276 274 274 274 276 278 278 278 277 278 278 278 278 278
282 283 283 284 285 285 281 279 278 279 279 279 279 280 282 281 283 280 279 276 276 275 275 273 273 273 270 274 274 273 273 275 276 276 276 276 277 273
280 281 283 286 286 286 285 282 281 283 282 280 279 279 279 278 278 278 279 277 275 274 277 274 271 270 269 268 270 271 271 271 270 271 274 274 275 275
281 282 283 286 287 287 286 286 286 284 282 280 280 279 279 279 278 277 276 276 276 274 274 273 270 269 267 265 265 268 268 269 270 269 270 272 274 274
284 286 286 286 287 287 287 287 285 284 282 281 280 280 277 276 275 274 275 274 273 272 273 272 269 268 267 264 263 264 266 266 268 268 268 269 269 269
286 285 286 285 286 285 282 284 283 282 281 280 277 276 275 273 272 273 270 269 266 266 270 270 269 267 264 264 264 263 264 263 267 267 268 268 269 270
285 283 283 283 282 281 280 280 279 276 275 275 274 273 272 272 270 269 267 265 262 263 263 265 268 267 266 265 262 263 263 265 266 266 266 265 268 269
280 279 278 279 279 278 276 276 275 272 273 272 270 269 269 268 266 266 265 262 261 261 261 263 263 262 262 263 268 264 265 264 265 265 266 264 265 268
279 278 278 278 278 277 275 274 272 271 268 267 268 267 266 265 263 263 263 262 260 260 260 261 261 260 258 256 262 269 264 263 264 264 265 265 265 267
278 276 276 276 275 273 271 270 268 266 265 266 265 263 261 261 260 260 261 258 257 258 256 258 261 261 259 258 258 261 268 265 265 264 264 266 267 271
271 272 271 271 270 269 268 266 266 265 264 262 261 259 258 258 257 258 259 258 257 255 255 258 262 264 262 260 258 259 264 269 269 265 266 264 263 264
268 267 266 266 266 265 265 263 261 260 259 258 259 258 258 258 257 255 255 256 255 257 258 261 262 262 260 260 259 259 260 264 267 269 270 269 265 261
263 264 263 262 262 261 260 260 259 261 260 260 259 257 256 254 255 257 255 254 254 254 255 256 258 260 259 259 259 259 259 261 262 263 264 269 270 271

GFSNE_sfc_thetae_072.txt.gz
Theta_e
298 294 289 287 286 284 283 282 279 276 277 279 280 283 282 283 282 281 280 285 287 287 289 289 289 290 291 293 293 294 294 294 294 294 293 293 293 293
292 288 287 285 285 285 283 282 282 281 277 280 280 281 283 283 283 281 280 285 286 287 288 288 289 289 290 291 292 292 292 293 292 292 291 291 292 292
289 287 285 284 284 283 281 281 281 282 279 277 280 281 281 281 280 280 280 280 280 286 287 288 288 289 289 290 290 290 290 290 290 289 289 289 290 291
287 285 284 284 282 282 281 280 281 281 281 277 278 278 279 280 280 279 280 281 280 284 287 288 288 288 288 288 288 288 288 288 287 287 287 288 289 289
287 285 283 282 281 281 281 280 280 280 280 280 277 279 279 279 278 279 279 280 281 284 287 288 288 288 287 287 287 287 287 286 285 285 286 286 286 286
285 284 283 282 281 281 280 280 280 279 279 278 278 278 278 279 278 277 277 279 279 281 283 284 286 286 286 286 286 285 285 284 284 285 285 284 284 284
282 282 282 282 284 284 281 280 280 279 278 278 277 277 277 278 277 278 277 278 278 279 279 278 278 278 279 283 283 283 283 284 284 284 283 283 283 282
281 281 282 283 285 285 285 284 282 280 278 278 278 277 278 278 278 278 277 276 274 279 276 276 278 278 279 278 283 284 284 284 284 283 282 282 281 281
281 281 282 283 283 282 285 285 284 285 284 281 279 279 279 279 279 278 278 277 276 278 277 276 277 277 278 279 282 283 283 283 282 281 281 280 280 280
281 281 282 281 282 281 282 281 281 282 283 282 281 280 280 280 281 280 279 277 277 278 278 274 275 275 277 276 280 281 281 281 280 279 279 279 279 279
281 282 283 282 284 284 281 280 280 281 284 285 285 285 285 285 284 278 274 273 276 276 278 275 275 274 275 274 276 278 278 278 277 277 277 277 277 277
281 282 283 284 285 285 281 280 278 278 279 279 281 283 284 282 284 281 275 273 272 270 274 272 271 271 268 272 272 272 272 274 275 275 275 275 276 273
280 281 284 287 287 288 285 280 280 281 281 280 279 278 278 278 278 278 277 275 270 271 275 272 267 267 266 267 269 269 269 269 269 270 272 273 274 274
280 282 283 288 288 288 287 285 286 286 282 279 278 277 277 277 277 276 276 275 275 274 273 272 265 265 262 263 263 267 267 267 268 267 269 271 272 273
282 282 284 286 287 288 288 287 285 284 283 279 278 278 277 276 275 274 274 273 271 272 273 271 267 267 264 259 262 263 264 265 267 267 268 267 267 268
284 284 285 285 286 286 283 286 284 283 281 280 278 275 274 272 271 271 266 266 261 262 269 269 268 267 264 263 263 261 263 262 265 267 267 267 268 268
284 284 283 282 282 282 279 280 278 276 276 274 273 271 271 271 268 266 265 261 258 259 260 263 266 266 265 264 260 262 263 264 266 266 265 265 266 267
282 280 281 281 280 278 277 276 275 274 273 270 267 266 266 265 264 263 261 258 257 257 257 259 260 258 257 258 266 262 263 263 264 264 266 264 263 266
279 279 277 276 275 276 275 274 272 271 268 268 267 264 263 265 263 261 262 260 255 256 256 257 257 255 249 250 259 268 262 262 263 264 265 264 264 266
276 275 274 275 274 273 271 269 266 264 263 263 261 260 260 260 259 259 261 255 253 252 251 252 255 256 255 255 254 260 267 263 264 264 264 266 267 270
271 270 270 268 266 265 262 263 263 262 263 261 258 257 258 257 254 259 257 256 254 250 250 254 260 264 260 254 252 255 261 267 267 264 265 264 263 264
264 263 262 263 262 262 261 261 261 259 259 258 256 257 256 258 258 252 251 252 250 252 254 258 260 258 255 258 257 257 259 262 265 268 269 268 264 262
258 258 257 257 257 258 260 259 258 258 257 257 255 255 256 253 256 255 252 250 249 250 250 251 254 256 256 257 257 258 258 258 260 260 263 268 269 270

GFSNE_sfc_thetae_075.txt.gz
Theta_e
298 297 296 294 290 289 286 285 282 278 278 278 279 283 283 283 284 284 282 285 290 290 290 290 291 291 292 293 294 295 295 295 295 295 294 294 293 293
298 296 296 293 292 289 287 285 283 282 279 280 280 281 283 283 284 283 281 285 287 288 289 290 290 291 291 292 293 293 293 293 294 293 292 292 292 293
297 295 294 291 289 287 285 284 284 283 281 279 280 281 281 281 281 283 282 281 281 287 288 289 289 290 291 291 291 291 291 291 291 291 290 290 291 291
294 292 292 287 287 285 285 283 283 283 281 278 278 279 280 281 280 279 280 281 280 284 287 288 289 290 290 290 290 290 289 289 289 289 288 289 290 289
293 291 288 286 285 284 284 283 282 281 281 279 277 278 278 279 279 279 280 280 280 284 287 288 289 289 289 289 289 288 288 287 287 287 287 287 287 287
289 289 286 286 285 284 283 282 281 281 280 279 277 277 278 279 278 278 278 279 279 281 283 284 285 286 288 288 287 286 285 286 286 286 286 286 286 285
286 286 285 285 285 285 283 282 281 280 279 279 277 277 277 277 277 278 278 278 279 280 279 279 279 279 279 283 283 284 285 285 285 285 285 284 284 283
283 283 283 283 284 286 286 286 283 280 278 278 278 277 278 279 279 278 278 277 275 280 277 276 278 278 278 278 283 284 285 284 284 284 283 283 282 281
284 282 282 283 283 284 286 286 285 286 284 281 279 279 279 279 279 278 278 278 277 279 277 276 278 277 278 279 283 283 283 283 282 281 280 280 279 279
283 282 282 283 283 283 283 282 282 283 284 283 282 281 281 281 281 281 280 278 277 278 278 271 276 275 277 276 281 281 280 279 278 278 277 277 278 277
282 283 283 283 285 286 282 281 281 281 285 286 285 285 284 284 283 280 276 274 273 275 277 275 274 273 273 274 274 277 276 275 275 275 275 276 276 276
281 282 283 284 286 286 282 282 281 281 281 281 282 284 285 285 287 283 279 273 273 270 274 271 271 270 267 270 271 270 270 272 273 273 273 274 274 272
280 281 282 286 287 287 285 283 283 282 282 280 279 279 280 280 280 280 279 277 272 271 275 272 269 267 262 264 268 269 268 267 267 268 271 272 274 273
280 281 283 287 288 288 285 285 286 284 280 280 278 278 277 278 278 278 278 276 276 274 273 272 265 264 260 258 262 266 266 267 267 266 267 270 271 272
282 283 285 287 289 288 288 287 284 284 282 279 278 278 279 278 277 275 275 273 272 273 272 271 267 267 263 259 260 263 264 264 266 266 267 267 266 267
283 283 285 286 286 285 283 285 284 284 283 281 279 276 275 274 273 273 270 269 266 265 270 269 268 267 261 263 263 262 263 260 265 266 266 266 267 268
282 282 282 282 282 282 283 282 282 280 280 277 275 273 273 272 271 270 268 266 264 263 262 262 266 266 265 264 256 261 261 262 265 265 264 264 266 267
283 282 281 281 281 280 280 278 276 276 275 273 272 272 271 270 268 267 265 263 263 260 257 259 260 258 256 258 265 260 261 262 263 264 265 263 263 266
279 280 280 279 277 277 276 274 273 272 271 271 270 269 268 267 266 265 264 262 258 257 256 257 256 254 248 249 257 267 261 262 262 262 264 264 263 265
277 276 275 275 273 272 272 271 268 267 267 267 265 264 265 264 263 262 262 259 256 253 251 252 255 255 253 253 252 259 266 262 261 262 263 264 266 270
271 270 269 266 265 265 264 262 262 262 262 261 260 261 262 261 256 258 260 259 256 252 251 255 259 262 260 254 251 253 259 265 266 263 263 263 262 263
263 262 257 257 257 258 257 258 257 257 257 256 256 257 256 255 255 255 256 256 254 254 255 259 260 257 254 255 254 255 257 260 263 266 267 267 263 261
257 256 256 255 254 254 254 255 254 255 253 251 251 250 251 251 253 258 255 254 252 252 253 253 255 256 254 255 253 255 254 256 258 258 260 267 268 269

GFSNE_sfc_thetae_078.txt.gz
Theta_e
300 299 299 299 295 291 289 289 290 280 280 282 281 284 284 283 284 286 284 288 291 292 292 292 292 293 293 294 294 295 296 296 295 295 296 295 295 294
300 299 298 299 295 293 291 289 288 289 285 284 282 283 284 283 284 284 284 285 288 291 292 291 291 292 293 293 293 294 294 294 294 294 294 294 294 294
299 298 297 298 295 294 292 289 287 287 287 280 282 283 283 283 282 284 283 283 283 288 289 290 290 291 291 292 292 292 292 292 292 292 292 292 292 292
297 296 296 297 295 293 292 290 288 285 283 279 279 280 281 282 282 282 281 281 281 284 287 289 290 290 291 291 291 291 290 290 290 289 289 290 290 291
298 296 297 295 291 291 289 289 287 284 282 281 278 279 279 281 279 280 280 280 280 283 287 288 289 290 290 290 289 289 288 288 287 287 288 288 288 289
296 295 294 292 291 288 286 285 284 282 282 280 279 278 278 279 280 279 278 280 279 281 283 284 286 286 287 288 288 286 285 286 286 287 286 286 286 286
289 289 290 288 289 287 286 285 284 283 282 281 278 277 277 278 278 279 278 279 279 280 280 280 280 280 281 283 283 284 284 286 286 285 284 284 283 282
288 286 285 285 287 288 289 288 286 284 283 281 279 278 278 279 279 279 278 277 276 280 279 278 279 279 280 279 283 284 285 284 283 282 281 280 280 280
287 285 283 284 284 285 287 287 288 288 286 282 280 280 279 280 280 279 279 279 278 279 278 276 279 278 279 280 283 283 283 281 280 279 279 278 278 278
285 284 284 283 284 284 284 283 283 284 284 283 283 282 283 282 282 281 280 280 279 280 279 274 277 276 278 278 281 280 279 277 277 277 277 277 277 277
283 283 283 283 285 286 283 282 282 282 286 285 285 286 287 285 284 281 277 276 276 277 279 276 274 273 274 274 275 276 275 274 275 275 275 275 276 276
282 283 283 284 286 287 283 281 280 281 282 283 283 285 285 284 286 282 280 277 277 274 275 274 272 271 269 271 271 270 269 271 272 273 273 274 274 271
280 281 282 286 287 287 285 283 283 283 284 281 281 281 281 281 281 282 281 280 276 276 276 273 270 269 265 266 268 269 268 267 267 268 270 272 273 272
280 281 282 286 287 288 285 286 287 283 282 279 278 278 278 279 279 279 279 279 278 277 276 273 269 266 263 261 263 267 266 266 266 266 267 269 271 271
282 282 284 286 288 288 287 287 284 281 280 278 278 278 279 279 279 276 276 274 273 274 273 272 269 268 264 260 260 263 264 264 266 266 266 266 266 267
283 283 285 286 287 286 284 285 284 284 282 280 279 278 277 276 275 274 272 271 269 267 270 270 270 268 264 264 263 260 263 260 264 265 266 266 266 267
279 280 282 282 282 282 281 282 283 282 282 280 277 274 274 273 272 272 270 268 267 265 265 265 267 267 265 264 256 261 261 261 263 264 264 263 265 266
279 278 277 277 277 278 279 278 278 278 278 276 274 273 272 272 270 269 267 265 265 264 263 263 261 259 257 258 266 261 260 261 263 263 263 262 262 265
277 278 279 279 279 279 279 276 275 274 273 273 273 272 271 269 268 266 266 265 263 263 262 260 259 256 248 249 258 267 261 261 261 261 262 263 262 264
276 276 275 275 274 273 272 271 270 269 268 268 267 266 265 264 264 264 264 261 261 257 254 256 257 256 253 252 250 259 266 260 260 260 262 263 265 269
271 270 270 270 269 266 264 262 262 262 260 260 258 259 261 261 258 261 262 260 256 253 254 256 260 262 260 257 253 254 259 265 265 262 262 261 260 262
265 264 262 262 259 257 257 257 257 257 256 256 256 257 259 259 257 253 254 253 253 257 257 260 261 257 256 257 255 255 257 260 262 265 267 266 261 258
260 259 257 256 254 253 253 254 254 254 253 253 253 253 250 249 249 253 251 253 254 254 253 254 257 257 256 257 255 256 255 256 257 257 259 266 268 269

GFSNE_sfc_thetae_084.txt.gz
Theta_e
304 304 304 303 302 302 300 299 298 296 297 287 286 287 288 288 290 291 290 293 298 299 298 298 298 297 296 296 296 297 296 297 297 298 297 297 296 297
304 303 303 303 302 302 300 297 298 297 295 298 287 286 287 287 288 289 289 291 293 295 295 296 297 296 296 295 295 296 295 295 297 297 296 296 295 295
304 302 302 303 302 301 300 297 296 296 293 297 287 286 285 286 286 287 287 287 287 292 293 295 295 295 295 294 295 294 295 295 295 295 294 294 293 293
304 303 302 302 300 301 300 295 296 296 294 293 289 282 283 285 285 284 285 286 285 290 292 293 294 294 293 293 293 292 293 293 292 291 291 291 291 292
303 300 301 299 297 298 298 296 294 294 293 292 292 282 282 283 283 283 283 284 285 287 291 292 292 293 293 292 291 291 292 290 289 288 288 289 289 288
301 300 299 297 297 296 295 295 293 291 290 289 284 281 281 282 282 280 280 282 281 284 286 288 290 290 291 292 291 290 288 287 287 287 288 287 285 284
295 294 294 294 293 296 294 293 291 289 286 286 285 280 279 279 279 280 280 279 280 281 282 283 284 285 286 289 287 287 287 287 287 287 284 282 282 281
291 291 290 288 290 292 294 295 291 288 286 286 286 282 282 281 281 279 279 277 276 281 279 279 282 281 281 283 285 287 287 287 286 282 280 280 280 280
288 288 287 287 286 288 290 292 293 293 292 288 286 284 282 281 281 279 279 279 279 279 279 278 280 279 282 283 287 288 287 286 281 279 278 278 278 278
287 287 287 287 286 285 286 286 287 287 288 288 285 284 284 283 282 282 280 280 280 279 281 277 279 279 281 281 286 286 285 281 278 277 276 277 277 278
286 285 286 285 286 288 285 284 284 283 287 287 287 287 287 286 284 282 280 279 276 277 280 278 276 276 277 277 278 282 283 278 276 275 275 276 276 276
283 283 284 285 286 287 285 284 281 281 283 283 284 286 286 285 286 284 281 279 276 275 278 277 274 274 272 273 273 274 274 275 273 273 273 274 275 272
282 282 282 285 287 287 287 283 282 283 285 283 282 282 283 283 282 282 282 281 277 276 278 276 273 272 272 269 270 271 270 269 268 268 270 271 273 273
281 281 282 284 286 287 285 286 286 284 282 281 280 280 280 280 281 281 281 281 281 280 279 276 272 272 269 266 267 268 268 268 267 267 267 269 270 271
282 282 284 285 286 286 286 286 283 282 281 280 279 279 279 280 279 277 275 275 274 275 275 274 273 271 269 267 265 265 265 266 267 266 266 266 266 266
282 281 283 285 286 285 284 284 282 282 281 280 279 279 279 278 276 275 273 273 271 269 271 272 272 271 267 267 265 262 265 262 264 265 265 265 266 266
276 278 281 282 282 282 282 282 282 282 281 280 279 277 276 276 275 274 272 271 270 268 266 267 267 267 267 266 260 263 263 263 264 264 263 262 264 265
279 278 278 279 279 279 280 279 279 279 278 278 277 276 275 274 272 271 271 269 267 267 265 265 265 263 262 262 267 261 260 260 262 263 263 260 260 264
276 278 278 278 278 277 277 276 274 273 274 275 274 274 273 272 270 269 268 267 266 266 264 264 263 262 258 258 260 267 260 261 260 259 261 261 260 262
273 273 272 273 272 272 272 272 271 271 270 270 269 269 269 267 266 266 267 264 264 262 260 261 262 261 258 255 253 259 267 260 258 258 260 262 263 267
268 267 267 267 267 267 267 266 266 264 264 264 264 264 264 264 262 264 264 263 262 260 258 260 261 263 258 254 251 252 259 265 264 259 261 260 259 259
264 263 262 262 262 262 262 262 262 262 262 262 260 259 259 261 259 258 258 258 257 258 256 258 259 256 254 255 251 252 255 259 262 265 266 266 260 256
260 260 259 258 258 258 259 259 258 257 255 256 254 252 252 253 251 254 249 248 248 249 250 252 255 256 254 255 252 253 252 253 256 256 259 265 266 268

GFSNE_sfc_thetae_087.txt.gz
Theta_e
307 307 306 307 304 304 303 301 300 297 300 301 290 290 290 293 293 293 294 296 300 304 306 307 306 304 302 301 299 300 300 299 299 297 298 299 299 298
307 306 306 306 305 303 302 302 301 300 297 304 299 291 289 289 290 291 291 293 296 300 303 304 303 301 300 298 298 299 298 299 298 297 299 298 298 296
306 305 304 305 304 304 302 301 300 299 296 300 300 292 288 287 288 289 290 290 291 295 299 302 301 299 298 298 298 297 297 298 296 297 296 297 295 294
305 303 303 303 302 303 303 300 299 299 297 295 298 288 287 287 288 286 287 288 288 291 296 299 297 296 297 297 296 296 296 295 294 295 294 293 292 293
303 302 302 302 300 300 300 300 297 297 297 295 295 284 285 284 284 284 285 285 286 288 292 295 295 295 296 295 295 294 294 292 293 292 290 290 291 291
300 300 300 299 299 299 296 296 296 294 293 293 293 291 283 282 284 282 281 283 283 285 288 290 292 293 294 294 293 292 291 292 292 290 289 289 288 285
295 296 297 296 293 297 295 295 293 292 292 290 290 284 282 280 280 281 281 281 282 284 284 285 287 288 290 293 291 291 291 290 290 289 288 287 283 282
291 292 291 288 290 292 294 295 295 290 289 290 289 288 286 283 282 280 280 278 277 283 283 283 285 285 286 287 289 290 290 289 289 289 286 283 281 280
289 288 288 287 287 289 290 292 292 293 295 291 288 288 286 283 282 280 281 280 279 280 281 279 283 282 284 285 289 289 289 289 289 286 282 280 279 279
288 288 287 287 287 287 287 286 286 287 288 290 287 287 286 285 284 283 282 281 280 281 283 278 280 280 282 283 288 289 289 289 285 282 280 278 277 278
287 287 286 286 287 288 286 285 285 285 287 290 290 289 289 288 285 283 280 279 277 278 282 279 279 278 280 280 281 288 288 284 281 279 277 276 276 277
286 285 284 286 287 288 285 285 284 283 284 284 285 286 287 286 286 284 283 281 278 277 280 278 276 276 275 275 276 276 282 279 277 275 275 274 275 274
285 284 284 285 286 287 288 285 284 284 285 284 284 284 284 284 284 284 285 282 280 278 281 278 276 276 275 271 272 273 273 274 271 271 271 272 273 274
283 283 283 284 286 287 287 286 287 285 284 283 282 282 282 282 282 283 282 282 282 282 282 279 275 276 273 271 271 271 271 271 270 269 269 270 271 272
283 284 285 285 286 286 286 286 284 283 282 281 281 280 281 281 279 277 276 275 274 275 277 277 276 274 275 273 270 269 268 269 269 269 268 268 268 268
282 281 284 285 286 285 284 284 283 283 282 281 280 280 280 279 277 277 275 275 273 271 272 274 274 274 271 271 271 268 268 268 267 267 267 267 267 268
278 279 282 283 283 283 283 282 283 283 281 281 280 279 278 277 276 276 274 274 273 270 269 269 269 269 270 270 268 268 267 266 267 266 265 265 266 267
277 278 279 280 280 280 280 279 278 278 279 280 279 278 277 276 274 273 273 273 271 270 268 268 267 267 267 267 268 266 265 265 265 265 265 263 264 266
275 275 275 275 276 276 275 275 274 274 276 275 275 275 275 274 273 272 271 270 269 269 267 267 267 267 265 265 265 268 265 264 264 264 264 264 263 264
272 271 271 271 271 271 272 272 271 271 271 271 271 271 271 271 270 270 270 268 268 266 265 265 265 265 265 265 263 264 268 264 264 263 263 264 265 268
268 267 267 267 267 268 268 267 267 267 267 267 267 267 267 268 266 267 266 265 264 264 264 264 264 264 262 261 261 261 263 266 266 264 264 262 261 262
265 264 264 264 264 264 265 265 265 264 264 263 262 263 263 265 263 263 263 263 262 262 262 262 261 261 261 261 259 258 260 262 263 265 266 266 263 260
262 261 261 260 261 261 262 262 261 260 259 259 259 259 259 259 258 259 258 257 257 257 258 259 260 260 259 259 258 258 257 258 259 260 261 265 266 267

GFSNE_sfc_thetae_093.txt.gz
Theta_e
313 312 311 312 312 309 309 307 304 300 302 307 302 303 303 302 301 302 302 301 303 304 304 305 305 306 309 310 313 315 316 316 315 313 310 308 306 304
309 309 309 310 310 310 308 307 306 303 300 306 307 302 298 297 297 298 299 296 298 301 302 303 302 303 304 306 308 310 314 314 314 312 308 307 304 303
306 306 305 307 307 307 307 307 305 304 300 303 305 306 298 295 293 294 294 294 294 296 298 299 299 300 301 302 303 305 307 312 312 309 305 305 303 302
301 302 301 301 302 303 304 303 304 304 301 298 302 302 299 295 296 293 292 291 291 294 295 297 298 298 298 299 300 301 302 304 309 304 303 303 302 300
297 297 297 297 296 297 299 299 300 301 301 298 298 300 301 288 288 287 288 289 289 291 294 295 295 296 296 297 298 298 298 303 302 300 300 300 299 299
294 294 294 293 294 295 295 295 295 295 296 296 296 296 297 288 286 286 286 286 287 286 288 289 290 291 293 293 294 296 297 297 297 297 297 296 295 294
291 290 291 290 289 291 291 291 291 291 291 291 292 293 293 286 285 286 285 287 285 286 285 285 286 286 287 290 292 293 295 295 296 294 293 292 292 292
288 289 290 289 290 290 291 292 292 289 288 288 288 288 289 291 290 287 285 281 282 284 283 283 285 284 286 287 291 293 294 294 292 291 291 291 291 290
288 288 288 288 288 288 289 290 290 290 291 288 286 287 287 288 288 286 284 282 283 283 283 282 284 284 285 286 291 292 292 292 292 291 291 290 290 288
287 287 286 287 287 286 287 286 286 287 287 287 287 286 286 287 287 287 285 284 283 283 284 280 283 282 284 285 291 292 291 291 291 290 290 290 287 285
286 286 286 286 288 289 286 285 285 286 288 290 290 290 290 290 289 285 283 282 280 280 283 281 281 280 280 280 284 290 291 290 288 289 289 286 285 283
285 285 286 288 288 287 285 284 283 284 285 285 285 286 286 286 287 285 284 282 279 278 282 279 279 280 276 277 278 282 284 288 289 287 285 284 282 277
284 284 286 286 286 287 287 285 285 286 286 284 285 284 284 284 284 284 283 283 282 280 283 281 279 278 276 274 275 276 277 276 277 278 280 280 279 276
284 284 284 285 286 287 286 287 287 285 284 284 284 283 282 279 279 278 278 277 278 278 280 281 279 278 275 274 272 274 273 274 274 273 273 274 274 275
284 284 285 285 286 286 286 285 284 284 284 283 281 280 280 280 280 279 278 277 275 274 276 278 279 278 278 274 272 272 271 272 273 272 271 271 270 270
284 284 285 286 286 285 283 284 284 284 283 282 281 281 281 279 278 279 277 277 274 272 273 275 275 277 274 274 273 272 271 269 270 270 270 270 270 270
283 283 282 283 282 282 282 281 281 282 282 283 281 280 279 278 277 278 277 276 274 273 271 272 273 272 271 273 271 271 270 269 270 269 268 267 269 269
282 280 279 279 279 279 279 279 278 277 278 280 279 279 277 276 276 276 276 275 273 272 270 271 271 271 270 270 273 268 268 267 267 267 267 264 265 268
280 278 277 277 277 277 276 276 275 275 276 276 276 276 276 276 275 274 274 273 271 270 269 270 270 270 268 267 266 272 267 266 265 264 266 264 263 266
275 274 273 273 274 274 274 273 274 274 273 273 273 273 274 274 273 272 272 271 270 269 267 268 267 267 265 264 263 265 270 264 263 263 263 264 266 270
273 271 270 271 272 272 271 271 270 269 269 270 270 270 270 271 269 269 267 267 268 267 265 264 263 265 264 261 258 259 262 267 266 261 261 260 260 261
271 270 269 269 269 269 269 269 268 268 267 267 267 267 267 267 266 265 264 264 262 264 263 263 263 262 260 260 257 257 260 262 265 267 267 266 259 257
268 267 266 265 265 265 266 265 264 265 263 263 263 262 262 261 261 261 259 257 257 257 258 258 259 260 258 258 256 257 256 257 259 259 261 267 267 268

GFSNE_sfc_thetae_096.txt.gz
Theta_e
305 305 307 309 309 310 309 308 304 299 300 304 305 303 304 304 302 302 302 301 304 306 307 307 308 308 308 309 310 311 312 313 315 315 316 317 318 315
301 300 301 302 303 305 306 306 306 303 299 304 305 306 301 300 299 300 301 297 300 302 304 304 305 305 305 306 307 308 309 310 311 311 313 316 316 316
296 296 297 298 298 299 300 300 301 302 299 301 304 304 303 298 297 296 297 297 298 298 300 301 301 302 302 302 303 304 305 306 306 307 308 308 313 312
293 293 293 295 293 295 296 296 296 298 297 295 298 298 299 301 301 296 296 295 294 295 297 299 300 299 299 300 300 300 300 301 302 303 304 306 310 307
290 290 290 291 290 291 292 292 293 294 295 293 293 296 297 298 295 290 290 292 290 293 296 296 297 297 298 298 298 298 297 297 297 299 300 301 306 303
289 289 289 288 289 288 288 288 289 290 290 290 290 291 293 293 286 287 289 287 289 288 290 291 292 292 293 294 293 292 293 294 297 298 301 302 301 299
286 287 287 287 289 289 288 287 287 286 287 287 287 288 288 289 289 290 286 290 289 287 287 286 285 285 286 289 288 290 293 297 296 297 298 297 296 295
284 285 285 287 288 289 290 290 289 286 286 286 285 285 286 287 288 287 287 286 285 285 283 279 282 284 285 285 289 291 293 294 294 293 292 292 292 292
284 285 285 285 286 286 287 288 287 288 289 287 285 285 284 285 285 284 285 285 285 284 282 280 283 282 284 285 290 292 293 293 292 291 291 291 291 290
283 285 285 285 286 285 286 285 285 285 285 286 286 286 286 287 286 285 285 284 282 282 283 278 280 280 282 281 289 292 292 291 291 291 291 291 290 289
284 285 285 285 286 288 285 283 284 284 287 288 289 289 289 288 288 285 283 281 278 278 282 280 279 278 278 278 281 291 290 290 290 291 291 289 288 286
284 284 285 286 286 286 284 283 282 284 285 285 284 285 285 284 285 283 283 279 278 277 281 278 279 279 275 277 276 280 285 289 290 290 288 286 282 277
283 283 283 285 286 287 287 284 285 285 284 283 283 279 279 278 278 277 278 277 278 278 282 280 279 277 274 273 274 274 276 276 276 279 284 282 281 277
283 283 283 285 286 287 285 287 286 284 283 280 277 277 277 276 276 276 276 275 276 276 277 281 278 277 274 273 272 273 273 274 274 273 274 277 278 277
284 284 285 286 287 286 285 286 283 280 278 276 276 276 278 278 279 277 276 276 275 274 275 276 277 277 276 273 271 271 272 272 273 272 272 271 271 270
285 283 284 285 286 284 282 281 281 281 279 277 276 278 279 277 276 277 275 275 274 273 274 275 274 276 273 273 272 270 271 269 270 270 270 270 270 270
284 282 281 280 280 279 273 274 275 276 277 278 278 278 277 276 275 276 276 274 272 271 270 272 272 272 272 272 269 269 268 268 269 269 268 267 269 270
275 278 278 278 277 277 269 269 270 272 275 275 275 276 275 274 274 273 273 271 269 269 268 269 270 269 268 268 272 267 266 266 267 267 267 264 265 268
277 276 277 276 276 271 268 269 269 272 271 272 272 272 273 272 272 272 272 270 268 268 267 268 268 265 262 261 264 272 265 265 264 263 265 263 262 266
275 273 271 272 269 267 267 268 269 269 269 268 269 270 270 270 269 268 268 267 265 264 264 263 262 263 260 261 258 264 270 262 260 260 262 263 265 269
271 271 271 270 269 267 266 266 265 264 265 265 265 265 266 265 264 264 265 265 264 262 260 260 262 265 262 258 256 256 261 269 265 259 259 258 258 260
270 270 269 268 267 266 264 263 262 263 263 262 262 261 262 262 262 260 260 260 259 259 259 261 262 259 257 257 253 254 257 260 264 267 267 266 259 254
267 267 266 265 264 264 262 260 259 260 259 259 258 257 257 257 256 258 256 255 254 254 253 254 256 257 255 255 253 255 254 255 257 258 260 267 267 268

GFSNE_sfc_thetae_102.txt.gz
Theta_e
291 291 292 293 293 293 294 294 293 287 287 289 291 294 295 297 297 296 297 298 302 303 304 305 306 306 306 307 308 310 311 311 311 312 313 313 312 313
290 289 289 290 290 290 290 290 290 290 287 290 291 292 293 294 294 294 295 295 297 300 301 301 302 303 304 304 305 306 307 308 309 309 310 310 310 310
287 287 287 288 287 287 288 288 288 288 286 288 290 291 290 290 291 292 292 292 293 296 297 298 300 300 300 301 302 303 303 304 304 305 305 305 306 307
285 285 285 287 285 286 287 288 288 288 286 284 286 287 287 289 290 289 290 292 292 293 295 295 296 296 297 297 299 299 299 299 299 299 299 301 302 303
284 283 283 283 285 286 286 286 286 287 286 285 284 286 287 288 287 288 288 288 289 291 292 292 293 294 295 295 295 294 293 293 293 294 294 296 297 299
284 283 283 285 285 285 285 284 285 285 284 284 283 283 284 286 286 284 283 286 285 287 289 290 292 291 291 290 289 288 288 290 291 294 296 298 298 298
282 283 285 285 286 286 285 285 285 284 284 283 282 283 283 283 282 284 283 284 284 285 284 286 286 284 284 285 285 287 290 292 293 292 293 297 299 298
282 283 284 285 285 286 287 288 287 285 283 282 282 281 282 282 283 283 281 280 278 281 284 282 282 282 282 282 286 288 290 293 292 291 291 292 292 292
283 283 283 284 285 285 286 287 286 287 287 285 282 282 282 284 283 281 280 280 280 284 282 274 277 276 280 281 287 293 292 291 291 291 291 290 290 290
284 284 283 284 284 284 284 284 284 284 284 285 284 284 285 284 281 280 278 277 279 278 280 274 276 276 281 279 284 291 291 291 290 290 289 289 289 288
282 284 284 283 285 286 284 283 284 283 285 287 287 287 286 283 282 274 272 272 274 274 279 277 277 277 279 277 278 284 290 289 288 287 287 286 285 285
282 283 284 285 285 286 284 284 281 281 284 283 283 280 277 276 279 271 273 269 270 268 277 275 276 275 275 278 276 276 277 282 286 286 285 284 281 277
282 282 283 286 286 286 287 283 282 285 283 280 272 270 270 271 273 274 274 273 268 271 277 276 277 276 274 274 275 274 274 275 275 275 282 283 282 278
282 283 283 286 287 286 286 286 285 283 278 268 266 268 273 274 275 274 273 273 274 274 275 276 277 275 274 273 272 274 273 273 273 271 272 275 278 280
283 284 286 286 287 285 285 284 280 277 279 272 274 274 274 273 274 274 273 273 273 274 274 274 275 274 274 272 271 271 271 271 271 271 270 270 270 270
283 282 282 285 285 284 279 278 277 273 274 277 277 271 271 270 270 273 271 272 269 269 274 274 273 273 270 270 270 268 269 268 270 270 270 270 270 270
283 276 270 271 273 275 273 272 270 272 272 273 271 272 271 272 271 272 271 269 267 268 268 271 272 272 271 270 265 267 267 266 268 268 267 266 267 268
279 276 276 272 276 275 272 271 271 271 272 272 270 269 267 268 270 270 269 266 264 265 265 267 268 268 266 268 271 264 265 264 265 266 265 261 262 266
270 266 269 273 275 274 270 270 270 272 271 270 267 267 269 268 268 268 268 267 264 264 263 264 264 262 259 259 263 271 264 263 261 260 263 261 260 264
259 262 267 270 268 268 268 268 269 270 270 268 266 264 263 264 263 262 264 262 261 261 260 260 261 261 257 258 255 262 269 259 258 258 260 261 264 268
259 262 262 263 263 264 266 267 266 266 267 264 262 261 261 261 260 259 260 262 262 258 257 260 262 263 259 255 255 255 260 268 265 258 258 257 257 259
255 257 259 258 259 261 263 263 264 263 262 260 260 259 260 260 261 258 258 259 257 258 258 259 261 258 255 255 252 252 256 259 262 266 267 265 257 254
253 254 255 257 258 259 261 262 261 262 260 259 258 258 259 260 259 260 258 255 255 253 252 254 255 256 254 255 252 253 253 253 256 257 259 266 267 268

GFSNE_sfc_thetae_105.txt.gz
Theta_e
288 288 288 289 289 289 288 289 288 283 283 286 287 290 290 291 291 291 292 294 295 296 297 297 297 298 299 300 301 302 304 305 305 306 307 308 309 309
287 286 286 287 287 287 286 287 286 287 283 286 287 288 289 289 290 290 291 291 292 294 294 294 295 296 296 297 298 299 301 302 303 303 305 306 306 307
285 284 284 285 284 284 285 285 285 285 283 285 286 288 287 287 288 289 290 289 290 291 292 293 293 293 294 295 296 297 298 299 299 299 299 300 301 302
283 283 282 285 285 285 285 285 286 286 284 282 285 285 286 287 287 286 287 288 286 289 292 292 292 292 293 293 293 294 294 293 293 294 295 296 297 298
282 282 282 284 282 283 285 285 285 285 285 283 282 285 285 286 284 284 284 284 287 288 289 290 291 291 291 290 290 289 288 289 291 293 294 296 297 298
283 283 284 284 284 284 284 284 284 284 284 283 283 283 284 284 283 283 282 283 282 284 286 288 289 287 287 288 287 286 287 289 292 293 293 294 294 296
283 284 284 284 285 286 284 284 284 284 283 281 281 282 282 281 281 283 281 281 280 279 283 283 281 281 282 283 284 291 292 291 293 292 292 292 292 292
282 283 284 284 285 286 286 287 286 283 281 281 282 281 281 282 284 281 279 277 276 279 281 279 278 280 281 281 290 292 292 291 291 291 291 290 290 290
282 283 283 283 284 284 285 286 286 287 287 284 282 282 281 282 281 279 278 276 275 278 278 274 276 278 282 280 291 291 291 290 290 290 289 289 288 288
282 282 283 283 284 283 283 283 284 284 285 284 284 284 284 283 281 279 276 270 274 276 276 274 275 276 281 279 284 287 289 288 288 287 286 286 287 286
282 282 283 283 285 286 284 282 283 284 284 287 287 286 285 283 282 268 270 265 267 272 277 274 276 276 279 277 277 282 284 285 287 286 285 284 283 282
280 282 283 284 285 286 284 283 283 282 283 283 282 281 278 276 280 270 273 269 263 266 275 273 274 275 273 277 275 275 275 279 280 284 284 283 281 276
276 277 280 285 286 287 287 283 283 284 282 280 278 271 270 270 272 272 272 272 266 265 275 275 274 274 272 273 274 273 273 273 272 273 278 281 281 277
275 279 279 285 286 286 286 286 286 283 280 276 271 271 275 276 275 272 273 274 274 274 274 274 274 273 272 271 271 274 272 271 271 270 271 273 275 277
279 282 285 286 286 284 285 286 281 277 275 278 278 277 275 273 272 270 269 272 273 272 274 273 273 273 271 269 269 269 270 270 271 270 270 269 269 270
281 281 281 284 283 282 278 280 274 271 269 269 271 272 271 270 269 269 268 270 270 269 273 274 272 272 269 269 268 266 268 266 268 269 269 268 269 269
278 270 270 269 269 273 271 272 270 268 268 269 268 268 270 269 268 268 268 267 266 267 268 270 272 271 270 269 263 266 266 265 267 267 266 265 266 267
275 273 266 266 269 271 271 271 267 267 266 268 266 267 268 266 266 268 268 266 264 265 264 266 267 266 265 267 270 265 264 263 264 265 264 260 261 265
260 259 260 264 267 269 270 270 267 266 265 265 265 264 264 265 267 267 268 267 264 263 262 263 262 262 259 259 261 271 262 262 261 259 262 261 260 264
255 255 257 261 264 265 265 266 264 265 268 268 267 265 261 262 265 264 265 263 262 261 259 260 260 260 258 257 255 262 270 259 258 258 260 261 263 268
253 253 254 256 258 259 261 261 262 263 264 264 265 263 260 261 263 262 263 264 263 259 258 261 263 263 260 255 254 255 259 267 264 258 258 256 257 258
251 251 252 252 253 254 256 257 258 260 261 262 263 262 261 260 263 261 262 262 258 259 258 260 260 257 255 256 253 252 256 258 262 266 268 265 257 254
251 250 251 251 251 253 253 255 256 258 259 260 260 259 258 258 259 261 261 258 256 256 254 255 256 256 254 255 252 253 252 253 255 257 259 266 267 268

GFSNE_sfc_thetae_108.txt.gz
Theta_e
286 286 286 287 287 286 286 287 286 280 281 284 284 286 287 288 290 289 288 290 292 293 293 294 294 295 295 296 297 298 300 299 300 301 302 302 302 303
285 285 284 285 284 284 284 284 285 284 280 284 284 285 286 287 288 287 287 289 290 291 292 292 293 293 294 294 295 295 296 297 298 298 298 298 298 300
283 283 283 283 282 283 283 283 282 283 281 283 284 286 285 285 286 286 286 286 286 289 290 291 292 292 292 292 293 293 293 294 293 294 295 297 298 299
282 282 281 284 282 282 283 282 282 284 283 281 283 284 284 284 284 283 285 286 284 287 289 290 290 290 290 291 292 292 292 291 291 293 297 297 297 300
281 281 282 282 281 282 282 281 283 285 284 283 282 283 283 283 284 283 283 283 284 286 287 288 288 289 289 291 292 294 293 292 294 293 293 294 295 296
282 283 283 283 282 282 282 281 283 283 283 283 282 282 283 284 283 281 280 282 280 282 284 285 286 286 287 288 292 291 292 292 292 291 291 292 292 293
282 283 283 283 285 285 283 283 284 283 282 281 281 281 281 281 281 282 280 280 279 276 279 281 279 281 282 283 289 290 290 291 290 290 289 290 290 290
282 282 283 283 284 285 286 286 286 283 282 282 282 280 281 281 282 279 279 276 274 277 277 278 278 279 280 281 289 290 289 289 289 288 288 288 288 288
282 282 282 282 282 283 285 286 285 286 287 284 281 281 282 282 280 277 277 275 272 276 277 272 275 275 280 279 286 287 289 288 287 287 286 286 286 286
282 282 282 282 282 283 283 283 283 284 284 284 283 284 284 283 280 276 272 267 270 274 275 271 273 274 278 278 283 284 285 285 287 286 285 284 283 282
283 282 281 281 284 286 284 282 280 283 286 287 287 286 286 284 281 267 268 270 264 269 277 274 272 273 275 274 275 280 281 281 283 285 284 282 280 278
281 282 282 283 285 286 281 277 275 276 282 281 282 282 278 275 280 270 271 270 263 264 274 272 271 274 269 272 273 273 274 277 278 279 281 282 279 274
279 279 280 284 285 286 286 282 277 282 282 279 278 275 272 270 271 272 273 271 265 265 273 273 268 270 269 271 273 272 272 272 272 272 275 278 280 277
277 279 279 284 286 286 283 285 286 284 278 278 278 278 277 276 273 271 270 273 273 272 271 272 270 269 267 266 268 271 271 271 271 270 270 273 274 276
280 281 284 285 285 283 283 283 281 273 272 268 273 278 279 274 270 269 267 269 272 270 272 271 270 270 266 263 264 266 268 270 270 269 269 269 269 270
281 278 281 283 281 279 273 276 275 278 275 270 267 269 269 267 268 268 267 266 264 265 271 271 271 270 265 265 266 263 267 264 267 268 268 267 268 268
275 270 271 269 268 269 267 266 267 270 271 266 265 266 267 268 268 266 265 262 263 264 265 266 270 270 269 268 260 265 265 264 266 265 265 264 266 267
267 265 264 265 266 266 265 266 265 266 269 267 264 264 265 269 270 266 264 263 263 263 263 265 266 264 264 266 269 262 261 262 263 264 263 259 261 266
262 260 261 261 261 264 263 264 266 265 266 265 265 266 267 267 267 266 265 266 264 263 263 264 263 261 257 257 260 270 261 261 260 259 262 260 259 264
258 257 257 256 257 258 259 260 261 261 263 264 264 264 264 263 264 264 264 260 261 261 259 260 261 260 257 257 255 261 270 259 258 258 259 260 263 268
255 253 253 252 254 254 254 255 257 259 260 259 261 261 260 261 264 264 262 264 262 259 258 260 263 264 261 255 254 255 259 267 264 258 257 256 256 258
254 251 251 249 250 251 251 252 253 254 256 256 258 259 260 261 263 262 262 260 260 261 260 262 261 258 255 256 253 253 256 258 262 266 268 265 257 254
254 252 250 249 249 249 249 250 251 253 254 254 256 258 259 258 259 261 261 260 258 258 257 258 258 257 255 255 252 253 252 253 255 257 259 267 268 268

GFSNE_sfc_thetae_111.txt.gz
Theta_e
291 291 290 290 290 290 290 290 288 285 285 289 288 290 290 290 290 290 289 289 291 292 292 293 294 294 294 296 297 298 299 299 298 298 298 298 300 300
289 288 288 288 288 289 288 288 288 286 283 288 287 288 289 288 289 289 288 289 289 289 291 292 292 293 293 295 297 298 298 298 298 298 299 299 300 301
287 287 286 287 287 287 287 287 286 286 283 285 287 288 287 287 287 289 289 288 288 288 290 290 291 292 293 295 295 295 295 295 296 296 296 297 298 299
285 285 285 285 285 286 286 285 285 286 284 282 285 285 285 287 287 287 287 286 287 287 289 289 290 290 291 293 293 293 293 293 293 293 294 295 295 296
285 284 284 285 284 285 285 285 285 285 285 283 283 285 286 287 286 286 286 286 285 285 287 287 288 288 289 292 291 291 290 291 291 291 291 291 292 293
284 285 285 284 284 285 284 285 285 285 284 284 283 284 285 286 286 284 282 284 283 284 284 285 285 285 287 289 290 289 289 289 289 289 289 289 289 290
284 284 285 285 285 286 285 285 285 284 284 283 283 283 283 283 282 283 281 282 282 282 282 284 284 284 283 285 287 288 289 288 288 287 287 287 287 287
283 284 284 284 285 285 285 286 286 284 283 283 283 281 281 283 284 281 280 278 277 283 279 281 283 282 282 283 286 287 287 288 287 286 286 285 285 285
283 283 283 283 284 284 285 285 285 286 287 286 282 282 282 284 282 279 279 277 277 279 278 278 281 281 282 281 285 285 285 285 286 286 284 283 281 281
284 284 284 284 284 284 284 284 284 284 285 285 285 285 285 285 283 280 277 275 276 277 278 275 279 280 282 280 282 282 282 283 283 284 284 282 280 279
284 284 284 284 284 285 284 281 282 283 286 287 287 286 285 284 283 279 277 274 275 276 278 275 277 278 280 278 278 279 280 280 280 281 282 282 280 278
283 283 282 283 285 285 283 283 282 283 281 284 284 283 280 279 280 278 277 274 273 273 277 275 275 277 276 278 277 275 276 277 277 278 279 280 280 275
282 282 283 284 285 285 286 284 283 284 284 284 282 280 280 278 278 278 277 276 273 273 276 275 274 275 274 275 277 276 274 273 273 273 275 277 278 278
281 282 282 284 284 286 286 285 285 284 282 280 280 279 281 280 280 279 277 276 277 276 277 274 273 273 272 272 273 275 274 273 272 271 271 273 275 275
282 282 283 284 285 284 283 283 279 280 280 277 277 277 279 280 278 276 275 273 276 276 276 274 274 273 272 271 270 271 270 272 271 271 270 270 270 271
283 282 282 283 282 280 276 277 276 277 278 278 276 275 275 275 276 276 274 274 272 273 274 274 273 273 272 271 270 269 269 268 269 269 269 270 271 271
278 277 278 275 275 274 273 272 273 273 273 275 274 273 273 273 273 274 273 271 271 272 272 272 272 272 272 270 269 268 268 268 268 267 268 268 269 270
276 274 273 272 272 271 270 270 271 270 272 272 271 271 271 271 271 272 272 270 270 270 270 270 269 269 269 270 271 268 267 267 267 267 266 266 267 269
273 270 270 270 269 268 268 268 268 269 268 269 270 269 270 269 270 270 271 270 270 269 269 268 267 266 266 265 268 270 267 266 266 266 266 265 266 267
268 268 267 266 265 265 265 265 265 266 266 268 267 267 266 267 267 268 268 267 268 267 267 266 266 265 265 266 265 267 269 266 265 265 265 265 266 268
265 263 263 263 263 262 262 262 262 263 264 264 264 264 263 264 265 266 266 265 265 265 265 266 267 265 264 261 262 264 266 268 267 265 265 264 264 264
263 262 261 260 260 260 260 260 260 261 262 262 262 262 262 262 263 263 264 264 264 264 264 266 265 263 262 263 263 262 263 264 265 267 269 268 265 263
262 261 259 258 258 257 257 258 258 260 259 260 260 261 260 260 261 262 262 262 262 262 262 263 263 262 262 261 260 261 259 260 261 262 264 268 270 270

GFSNE_sfc_thetae_114.txt.gz
Theta_e
297 296 295 294 295 294 294 294 292 289 289 292 291 292 292 292 291 291 291 290 291 291 292 293 293 294 295 297 297 297 298 298 298 298 298 298 298 299
295 294 293 293 293 293 292 292 292 291 288 290 291 290 290 290 290 291 291 290 289 289 291 291 292 293 294 295 295 295 296 296 296 295 296 296 297 297
292 292 291 292 291 291 291 291 290 290 288 289 290 290 289 289 290 290 290 290 290 288 289 290 291 291 292 293 293 293 293 294 294 293 293 294 295 295
290 290 289 289 289 289 290 289 289 289 288 285 287 288 288 289 289 288 289 289 289 288 288 289 289 289 290 292 292 291 291 291 291 291 291 292 292 293
289 289 288 288 287 288 288 288 288 287 288 287 286 288 288 288 288 288 287 288 288 287 287 287 288 288 288 290 290 290 289 289 289 289 289 289 289 290
288 288 287 288 287 287 287 288 287 287 287 286 286 286 287 287 288 285 284 287 286 287 286 286 286 286 287 287 288 287 288 289 288 288 287 286 286 286
287 286 287 286 287 288 287 287 287 286 286 285 285 285 285 284 283 284 283 284 285 285 284 286 286 287 286 285 286 286 287 287 287 287 286 285 284 284
285 285 286 285 286 286 286 286 287 285 284 284 285 283 283 284 285 283 282 280 280 287 281 283 286 285 285 284 285 285 286 285 285 286 286 284 283 282
285 285 284 284 285 286 286 286 285 286 286 286 284 283 283 284 284 282 282 280 281 283 280 281 285 283 285 283 283 284 284 283 283 284 284 284 282 281
285 285 285 285 285 285 285 285 285 286 286 286 286 286 286 287 285 284 281 280 281 282 280 278 283 282 284 284 282 282 282 281 281 282 282 282 282 280
285 285 285 285 285 286 285 284 285 286 287 287 288 286 285 285 284 283 280 278 279 281 281 278 280 280 282 282 282 280 280 280 279 280 280 280 281 279
284 284 284 285 285 286 285 285 283 285 285 285 285 286 285 283 282 283 282 278 278 278 279 278 279 278 277 282 281 280 279 278 278 278 278 279 279 278
284 283 284 286 286 286 286 285 285 286 285 285 285 285 284 283 282 282 281 280 278 277 280 278 278 277 277 277 279 280 278 276 275 275 276 276 277 278
284 285 285 285 285 286 285 286 287 285 285 284 283 282 283 283 283 282 282 281 281 280 281 277 276 276 275 274 275 278 277 276 274 274 273 274 275 276
285 285 285 284 285 285 286 286 283 283 282 281 280 280 281 283 281 281 281 280 278 279 279 278 276 276 275 274 274 274 273 275 273 272 272 272 272 273
284 284 284 284 284 284 282 281 281 280 280 280 281 281 281 279 279 280 278 279 277 278 278 277 276 275 274 275 274 273 274 271 272 271 271 272 273 273
283 282 281 281 280 280 279 278 278 277 277 278 278 278 278 278 277 278 277 277 275 276 276 276 276 275 274 273 272 273 272 271 271 270 269 270 271 272
281 279 279 280 279 279 278 277 276 274 276 276 277 276 275 276 276 276 276 275 274 275 275 275 273 272 273 274 274 272 272 271 271 269 269 268 269 271
280 279 279 279 278 277 275 274 274 274 273 273 274 275 274 274 273 273 274 274 274 274 274 273 271 270 269 268 272 272 269 270 269 268 268 268 268 269
281 279 277 277 276 274 273 272 272 271 271 272 272 273 272 272 272 272 273 272 272 272 271 271 270 270 268 269 268 270 271 269 268 268 267 268 269 270
276 276 276 274 273 271 271 270 270 270 270 270 270 270 270 270 269 270 270 267 268 269 268 269 270 267 268 266 265 267 269 271 270 268 267 266 266 267
277 274 272 271 270 269 268 268 267 267 267 268 268 269 268 268 268 267 268 268 267 268 268 268 268 267 266 265 265 266 266 268 268 270 271 269 267 266
274 273 271 268 267 267 266 266 266 267 267 267 267 267 266 265 266 267 267 266 265 265 265 265 267 266 265 265 264 264 264 264 265 265 266 270 271 272

GFSNE_sfc_thetae_117.txt.gz
Theta_e
299 298 296 296 297 296 295 295 293 290 289 292 291 292 292 292 291 290 291 290 291 291 292 293 293 294 295 296 296 296 297 297 296 296 296 296 296 297
297 295 294 294 294 294 294 293 292 291 289 291 290 290 291 290 291 291 290 290 290 290 291 291 292 292 293 294 294 294 294 295 295 295 295 295 295 295
295 293 292 293 292 292 292 292 290 291 289 289 289 290 289 289 289 290 290 289 289 289 289 290 290 290 291 292 292 292 292 292 293 293 292 293 292 292
292 291 290 291 290 291 290 290 290 290 289 286 287 287 287 288 288 288 288 289 288 289 289 289 289 289 289 290 290 290 290 291 290 290 290 290 290 290
291 290 289 289 288 289 289 289 289 288 288 286 285 287 287 287 286 287 286 287 288 288 288 288 288 288 288 288 289 288 288 288 289 288 288 288 288 287
290 290 289 289 288 288 288 288 288 287 286 285 285 285 285 285 285 284 283 284 284 287 287 287 288 288 288 287 287 287 287 287 287 287 287 287 286 285
288 288 288 288 289 289 287 287 287 287 285 284 284 284 284 283 282 283 282 282 283 283 282 283 284 284 284 285 285 285 286 286 286 286 286 285 285 283
286 286 287 285 287 288 288 289 289 286 283 284 284 283 282 282 283 282 281 280 277 282 280 280 283 282 283 282 284 285 285 285 284 284 284 284 284 283
285 285 284 285 285 285 287 287 286 287 287 286 284 283 282 282 281 282 281 280 279 281 278 277 281 280 282 282 283 284 284 283 283 283 283 283 282 282
286 285 284 284 285 285 285 284 284 284 285 285 285 284 285 284 283 283 282 280 280 282 280 275 279 278 280 281 284 283 283 282 282 282 281 281 281 281
285 285 285 284 285 286 284 284 284 284 287 287 288 288 287 286 285 282 280 279 277 279 278 276 278 277 278 277 280 282 282 281 281 280 280 280 280 280
284 285 284 285 286 286 284 284 282 283 284 284 284 285 286 284 284 281 281 278 277 277 277 274 276 275 272 277 277 277 276 280 279 279 279 278 279 275
283 283 284 287 287 286 286 284 284 285 285 284 284 284 284 281 282 282 281 280 278 278 280 277 275 274 272 273 275 276 275 275 274 274 277 277 278 277
284 284 284 286 287 286 286 286 287 286 284 284 283 282 283 282 283 282 281 281 281 280 280 278 274 275 273 270 271 274 274 273 273 272 272 274 276 277
285 286 286 286 287 287 287 286 284 285 283 282 280 281 282 282 281 279 281 281 280 278 279 279 277 276 275 270 270 272 273 273 273 271 271 271 271 272
286 285 285 285 285 284 283 285 283 282 282 280 280 282 281 280 279 280 278 278 278 277 278 278 277 276 272 272 273 271 271 268 271 271 270 271 272 272
284 284 283 282 282 282 282 282 281 279 277 277 277 278 279 278 278 278 277 276 275 274 275 273 275 276 274 272 267 270 270 269 271 270 268 268 270 271
283 281 280 281 280 280 280 279 278 277 277 277 276 276 277 276 276 277 276 274 273 274 274 273 272 270 268 270 274 269 269 268 269 268 268 264 266 269
282 281 280 280 280 280 280 279 277 276 276 275 275 275 275 275 274 273 274 274 273 273 272 272 269 267 263 262 267 276 268 268 266 265 267 265 264 268
282 281 280 280 280 279 278 277 275 274 271 272 272 273 273 273 272 272 272 272 272 271 269 270 267 268 265 262 261 266 274 266 265 266 266 265 268 272
281 281 281 280 280 278 277 275 273 272 271 271 271 271 271 270 270 270 271 269 267 265 264 265 267 267 265 262 258 261 266 273 270 266 266 263 262 263
282 282 281 280 278 275 274 272 271 270 269 269 269 269 269 269 268 266 265 266 264 263 264 266 265 263 261 262 261 264 264 266 269 271 272 270 261 258
282 281 279 276 274 272 271 270 269 268 267 267 267 268 268 267 266 266 266 263 261 260 260 260 263 264 262 263 262 260 261 262 264 264 266 271 272 273

GFSNE_sfc_thetae_123.txt.gz
Theta_e
313 307 302 297 296 293 292 290 287 283 285 287 286 287 287 287 288 286 286 291 290 291 291 292 292 293 293 293 294 294 295 295 294 294 295 294 294 294
298 297 294 293 292 291 291 289 289 288 285 288 286 287 287 288 288 286 286 289 289 290 290 290 291 291 291 292 292 292 293 293 293 293 293 293 293 293
296 296 292 291 290 289 289 288 288 288 286 285 286 287 286 286 286 286 286 285 285 289 289 290 290 290 290 290 290 290 290 291 291 291 291 291 291 291
295 293 291 291 289 288 288 287 287 288 287 283 284 284 285 285 284 284 286 286 284 288 289 289 289 289 289 289 289 288 288 289 288 288 288 289 289 289
296 292 291 290 288 287 286 286 286 287 287 285 283 284 284 284 283 283 282 281 285 288 289 288 288 289 289 289 287 286 287 287 287 287 286 287 287 287
295 292 290 290 288 287 286 286 286 284 283 282 282 282 283 283 283 280 278 278 280 283 285 286 287 287 289 288 286 285 286 286 286 285 285 285 285 285
291 289 290 289 288 289 287 285 285 284 283 282 282 282 282 282 280 279 279 278 278 277 278 278 279 280 281 285 284 285 285 285 285 285 284 284 284 284
288 288 288 286 289 290 290 290 288 285 283 283 283 283 283 282 281 280 279 277 276 280 278 276 277 276 279 278 285 284 285 285 284 284 283 283 283 283
287 287 288 287 286 287 290 290 289 290 288 285 283 283 283 282 281 277 279 278 278 279 278 275 276 276 278 281 286 285 284 284 283 283 283 282 282 281
287 287 286 285 286 286 286 286 286 287 287 286 285 284 284 284 283 281 279 277 279 280 280 276 275 275 276 275 284 285 283 283 283 282 282 281 281 280
286 286 286 286 287 288 285 284 283 283 287 288 287 288 288 287 284 279 276 274 273 277 276 277 275 274 274 273 274 283 283 282 282 281 280 280 280 279
285 285 284 286 287 288 284 283 281 282 283 282 284 286 287 287 287 282 278 275 272 273 278 277 274 272 269 271 272 271 273 279 280 279 279 278 279 274
284 283 284 287 287 289 287 284 283 284 284 283 282 282 282 281 282 282 280 279 276 276 278 276 271 270 267 267 271 271 272 273 272 273 276 277 277 276
284 284 284 287 287 288 287 286 286 284 283 282 281 281 281 281 281 281 280 281 281 280 279 280 276 271 267 268 269 270 270 270 271 271 271 274 274 275
285 285 286 287 288 288 289 287 285 283 282 281 281 281 282 282 281 279 279 279 281 281 281 280 278 276 275 273 269 267 272 270 271 270 270 270 270 271
285 285 285 286 287 286 285 287 285 284 283 282 282 282 282 279 279 279 279 278 278 278 279 280 279 278 275 274 272 270 270 268 269 270 270 269 270 270
285 284 283 283 283 284 284 284 285 284 283 283 282 281 280 279 279 279 278 278 276 275 275 274 277 277 277 274 269 270 270 268 270 269 268 266 268 269
284 282 282 282 281 282 282 282 283 283 283 283 282 281 279 279 278 278 278 276 275 275 274 273 272 271 268 269 275 270 266 267 267 268 266 263 264 267
284 283 281 282 282 282 282 282 281 282 283 282 281 280 279 278 278 276 276 276 274 274 273 273 272 271 267 265 266 277 268 266 264 263 265 264 263 267
285 284 283 283 282 282 282 282 282 282 281 280 279 279 278 277 276 276 275 274 274 273 272 272 271 270 269 267 263 266 275 266 264 262 263 264 266 272
284 284 285 284 283 283 283 283 282 282 281 280 279 278 277 276 275 275 275 274 273 272 270 270 272 272 266 265 262 260 263 273 269 263 261 261 260 261
283 282 283 284 284 283 283 283 282 282 280 278 277 276 276 275 275 274 273 272 271 271 271 269 266 265 264 266 265 259 260 262 266 271 272 269 260 258
282 283 282 282 283 283 283 283 282 280 278 276 275 275 274 273 274 274 272 272 271 270 267 265 265 264 265 264 262 261 258 257 259 260 262 270 272 272

GFSNE_sfc_thetae_129.txt.gz
Theta_e
317 317 317 318 315 312 305 301 305 289 288 291 287 289 288 288 288 289 287 292 295 295 294 294 294 293 293 293 293 293 293 293 294 294 294 294 294 294
318 318 317 317 314 308 303 301 300 306 299 292 290 288 288 288 288 287 286 289 293 294 293 293 293 293 292 292 292 292 291 292 292 292 292 292 292 292
317 315 315 315 308 305 301 301 298 297 300 287 288 287 286 286 286 286 286 287 287 292 292 292 292 292 292 291 291 290 290 290 290 290 290 290 291 291
315 311 311 307 306 305 301 299 299 295 290 286 284 284 285 286 285 285 285 287 285 289 291 292 292 291 291 291 291 289 288 288 288 288 288 289 289 289
312 308 308 304 301 297 297 296 294 292 289 286 284 284 284 285 283 284 283 284 285 288 291 292 292 291 291 291 291 290 288 287 287 287 287 287 287 287
305 304 303 300 300 297 295 295 292 290 287 286 284 283 283 282 283 282 281 281 283 284 287 287 288 290 289 290 291 290 288 287 287 286 286 286 286 286
297 297 297 295 293 295 294 292 289 288 287 285 283 283 282 282 282 283 282 282 282 282 282 282 283 283 282 287 287 289 288 287 287 286 285 285 285 284
293 293 292 288 291 293 293 293 291 289 286 286 284 283 283 283 284 282 282 279 279 281 280 281 280 280 281 280 285 288 288 287 287 285 285 284 284 283
292 290 289 288 287 289 291 292 291 292 290 287 285 284 284 284 284 282 281 280 280 279 279 278 278 277 279 281 286 288 288 287 286 285 284 284 283 282
290 289 288 287 287 287 287 286 286 287 287 286 285 285 285 285 285 284 283 279 279 279 279 277 277 275 276 277 286 288 288 288 287 285 283 282 282 282
287 287 287 287 288 290 286 286 285 285 289 289 288 287 288 289 285 282 279 278 273 277 279 277 276 274 273 273 277 286 287 287 286 284 283 281 281 281
285 285 285 287 288 290 286 286 284 284 285 284 285 287 288 287 287 285 282 279 275 275 278 277 275 275 273 275 275 275 275 286 286 284 282 281 280 273
285 284 284 288 289 290 289 286 286 285 286 284 284 283 283 283 284 283 283 282 278 277 278 278 275 274 273 272 274 275 275 275 275 276 281 280 279 277
285 284 285 287 289 290 289 288 289 285 283 283 283 282 282 282 284 284 282 282 282 281 280 280 275 275 272 267 271 274 273 273 273 273 273 276 278 277
285 285 287 287 288 289 290 289 286 284 283 282 281 281 282 284 281 280 282 282 281 279 280 281 279 276 275 274 272 272 272 273 273 273 272 272 271 270
287 285 286 286 287 287 285 287 286 285 283 282 281 282 279 278 280 281 280 280 279 279 281 281 280 279 276 276 276 276 273 273 272 272 272 271 271 271
285 283 283 282 282 282 283 284 284 284 283 283 281 278 279 280 280 281 280 279 278 277 279 279 281 280 279 278 274 276 276 272 274 273 271 270 270 270
284 282 281 281 281 280 280 283 283 284 284 284 283 283 281 281 280 280 281 280 279 278 279 280 277 277 274 276 279 276 275 274 272 271 270 269 269 268
282 284 282 282 282 281 281 281 281 282 284 284 283 283 283 282 281 281 280 279 279 279 280 280 276 275 273 272 275 280 275 273 269 269 270 268 267 268
282 282 282 284 283 282 282 281 279 280 281 282 282 283 283 282 281 281 281 279 278 279 279 278 275 276 275 274 274 270 280 274 269 268 266 267 268 272
280 280 281 282 282 282 283 283 282 281 282 281 281 281 282 282 281 281 281 280 280 279 277 277 277 278 278 272 270 264 268 278 273 269 267 266 265 265
272 272 273 275 277 277 279 280 281 282 282 282 282 282 281 281 281 280 280 279 279 278 278 279 276 276 272 272 272 272 267 268 275 275 273 271 265 263
264 266 268 269 271 272 273 273 273 273 275 277 281 282 282 281 280 278 278 278 277 277 276 276 271 272 272 272 272 271 266 266 265 266 268 274 274 273

GFSNE_sfc_thetae_132.txt.gz
Theta_e
318 318 318 319 318 317 315 312 309 305 303 291 290 291 291 290 289 290 290 294 297 298 297 297 296 296 296 295 295 295 294 294 293 293 293 293 294 294
318 318 317 318 318 317 314 313 309 309 305 297 292 290 291 290 290 289 289 290 295 296 296 296 296 295 295 295 294 294 293 293 293 292 292 292 292 293
319 317 316 317 316 315 310 309 307 305 302 297 291 289 289 288 288 289 288 288 289 294 295 295 294 294 294 294 294 294 293 292 291 291 291 291 291 291
317 315 313 312 312 313 306 303 303 302 300 301 286 286 287 288 288 287 286 287 286 290 294 294 294 293 293 293 293 293 292 291 290 290 289 289 289 290
312 310 311 307 304 302 300 300 299 295 293 289 287 285 285 286 285 285 285 285 286 288 292 293 293 293 293 293 293 292 291 290 289 289 288 288 288 288
303 302 302 301 301 300 297 296 294 290 288 286 285 285 285 284 285 284 283 283 283 285 288 288 290 291 293 293 292 292 291 291 289 289 288 287 286 286
297 297 297 295 292 296 295 293 291 288 287 287 284 284 282 282 283 283 283 283 283 283 283 283 284 284 286 291 289 290 291 291 290 288 287 286 286 285
293 294 293 289 292 292 294 295 293 290 287 287 284 284 283 283 284 283 283 280 280 284 283 282 283 282 283 284 287 289 289 290 289 288 287 286 285 284
291 290 289 290 287 288 290 293 292 293 292 289 286 285 284 284 285 283 283 282 282 280 280 279 280 280 283 283 287 289 289 290 289 288 287 286 285 284
289 288 288 288 288 287 287 287 287 288 288 287 287 286 286 286 286 285 284 283 279 279 279 277 277 277 278 280 286 288 289 289 289 288 287 286 284 283
286 287 287 286 288 290 286 285 285 285 290 289 288 289 289 289 287 283 281 279 278 277 279 277 276 275 273 275 278 287 289 289 289 289 288 286 284 282
282 285 286 287 289 289 286 285 284 285 285 285 285 287 288 287 289 285 283 280 273 272 278 277 274 275 272 273 274 274 278 287 288 288 288 286 284 276
284 282 282 287 288 289 290 285 286 285 286 285 285 284 284 284 285 285 283 282 273 272 277 277 273 273 269 270 272 273 275 275 277 283 287 285 283 280
285 284 282 287 288 289 288 289 289 287 285 284 283 283 283 283 284 284 282 281 280 279 278 280 274 274 270 265 270 273 274 273 273 274 274 279 282 281
285 286 288 288 288 287 288 289 286 284 283 282 282 282 283 284 280 281 284 281 279 277 278 280 278 276 276 271 272 273 274 274 274 274 274 273 273 272
286 285 286 286 287 285 281 284 285 285 283 283 280 277 276 274 278 279 282 282 280 280 281 280 280 279 278 276 278 277 275 275 274 274 273 273 273 273
284 283 283 282 282 282 280 281 281 284 283 283 282 281 280 279 279 278 280 281 279 279 278 280 281 281 281 280 276 277 277 274 276 274 271 270 272 272
284 282 281 281 281 281 280 281 282 282 283 283 283 283 282 281 279 278 280 280 278 279 279 280 278 278 278 278 281 278 277 276 276 274 272 270 271 270
281 282 282 282 281 280 280 279 280 281 274 280 283 283 282 282 280 280 280 279 279 279 280 281 279 277 275 273 275 282 277 277 273 271 272 270 271 269
270 273 277 276 277 277 278 279 279 274 274 280 281 281 282 282 281 280 280 279 279 278 278 280 280 277 276 276 277 275 281 276 272 271 270 269 269 273
266 266 266 271 274 275 274 275 277 279 281 281 281 281 281 281 280 280 280 279 279 280 278 278 279 279 280 275 274 273 271 277 277 273 269 267 265 266
258 259 260 260 263 265 267 267 267 267 270 272 273 274 277 279 280 280 280 279 278 277 277 276 274 276 276 273 273 274 269 269 276 277 274 273 267 265
256 256 256 257 257 258 259 260 261 262 263 267 269 270 271 272 273 274 275 275 273 274 273 275 269 270 273 273 273 273 268 267 268 269 272 276 274 273

GFSNE_sfc_thetae_135.txt.gz
Theta_e
319 319 318 320 320 319 317 315 311 307 309 302 295 295 293 292 292 293 293 294 298 300 300 300 300 300 299 299 299 298 298 298 297 296 295 295 294 294
318 318 318 319 318 318 316 315 314 311 307 303 295 292 294 292 293 293 292 292 295 297 299 299 299 299 298 298 298 298 298 297 297 296 295 294 294 294
319 318 317 318 316 316 315 313 311 307 304 302 294 291 291 291 290 291 291 290 291 295 298 298 298 298 297 297 297 297 296 296 296 295 294 293 293 293
317 316 314 312 312 312 308 305 304 303 301 301 290 287 288 290 289 288 289 290 289 292 295 297 297 296 296 296 296 296 295 295 294 293 293 293 292 291
312 310 307 306 304 303 303 302 301 298 298 294 292 287 286 288 286 287 287 288 288 289 293 294 295 296 295 295 295 295 294 294 293 292 291 291 291 290
302 302 302 300 300 299 298 298 297 292 290 289 286 286 286 285 286 285 283 284 284 286 288 289 291 293 294 295 294 294 294 293 293 292 291 290 289 289
298 297 297 294 291 294 295 295 294 290 288 287 286 285 284 283 283 285 284 285 284 286 286 286 287 288 290 292 292 293 293 293 293 293 291 290 289 288
295 295 295 291 293 292 294 294 295 292 288 288 287 286 286 285 285 285 285 283 282 285 285 286 287 286 287 289 290 292 292 292 292 292 291 290 289 288
294 292 291 291 289 291 291 292 293 294 294 291 288 287 286 285 286 284 285 284 284 283 285 284 286 284 287 287 289 290 291 291 291 291 291 290 289 287
291 290 289 289 289 288 289 288 289 289 290 290 289 288 288 287 287 286 286 285 283 282 284 282 282 283 286 286 287 289 290 290 291 290 291 290 289 287
287 288 288 287 288 290 287 286 286 286 290 290 289 289 290 289 289 286 284 282 282 282 282 282 282 281 281 282 283 286 288 290 290 290 290 289 289 287
286 286 286 288 289 290 286 286 285 285 285 285 286 288 289 288 289 286 285 283 283 281 282 281 282 281 282 281 280 281 284 288 289 290 290 290 289 285
286 286 285 288 289 289 290 286 286 286 287 285 285 285 285 285 286 286 285 285 283 281 281 282 279 279 279 279 279 279 280 281 283 285 289 289 289 287
286 285 284 288 288 289 288 289 290 287 285 285 285 284 285 285 285 285 285 285 286 285 283 282 281 279 278 277 278 278 278 279 279 280 280 284 288 288
286 287 288 288 287 286 288 288 286 285 285 284 284 283 284 285 284 284 285 284 283 283 283 283 281 281 279 280 280 279 278 279 278 278 278 278 279 278
287 286 287 286 286 285 282 285 285 285 285 284 283 283 282 282 282 283 283 284 283 283 283 283 282 282 280 280 279 279 280 279 278 277 278 277 277 277
285 285 284 284 284 284 284 284 285 285 284 284 283 283 283 282 282 283 282 282 280 281 281 283 283 282 282 281 279 279 279 280 279 278 275 275 276 276
285 284 283 283 283 282 281 281 282 283 284 283 283 283 282 282 282 282 281 280 280 280 280 282 281 280 280 281 282 279 280 279 280 278 276 275 275 276
279 283 281 281 281 281 281 280 280 281 277 281 281 280 281 281 281 281 281 281 280 280 281 281 281 279 277 275 282 284 279 280 279 276 276 275 274 276
278 278 277 277 277 276 277 277 278 279 280 281 281 281 281 281 280 280 280 280 281 281 281 280 280 280 279 277 278 281 282 279 279 276 275 274 273 274
266 267 267 269 269 269 270 270 270 270 271 271 273 273 274 275 276 279 280 280 280 280 279 280 280 280 282 280 276 277 278 279 281 278 275 271 270 270
263 264 264 264 264 265 265 265 266 266 266 267 268 269 270 271 272 272 273 274 275 276 276 278 278 278 278 277 275 275 276 274 275 278 278 276 271 269
262 262 261 261 261 261 262 262 261 263 262 263 264 265 265 265 267 268 270 271 272 273 274 274 275 273 274 275 274 274 274 270 272 273 275 277 276 274

GFSNE_sfc_thetae_138.txt.gz
Theta_e
321 320 320 320 320 321 319 317 313 308 309 304 301 302 297 296 295 297 294 295 298 300 302 302 302 301 301 302 302 302 302 301 300 300 299 298 298 297
320 319 319 319 319 320 318 317 315 312 308 309 305 296 295 294 295 294 295 294 295 299 300 301 301 300 300 301 301 301 301 301 300 300 299 298 298 297
320 318 318 319 318 317 316 315 313 312 309 306 298 294 294 294 293 293 293 293 293 296 298 299 300 299 299 299 299 299 299 299 299 299 299 298 297 297
319 318 317 316 314 313 310 309 307 306 303 302 295 292 292 292 292 290 290 291 291 293 297 298 299 299 299 299 298 298 298 298 298 297 297 297 296 296
318 314 312 308 306 306 307 305 304 302 303 298 297 291 290 290 289 289 289 289 290 291 295 296 296 297 298 297 297 297 297 297 296 296 295 295 295 294
306 306 305 303 304 305 302 302 301 299 296 295 293 291 290 289 288 287 285 286 286 288 290 292 293 294 296 296 296 295 295 296 295 295 295 294 293 293
301 301 303 299 293 298 299 301 299 296 293 292 292 291 290 286 285 287 285 285 286 286 286 286 288 289 291 293 293 293 294 295 295 295 294 294 293 292
300 299 298 291 294 292 294 294 297 297 291 292 292 289 289 287 287 286 285 284 283 288 285 285 287 287 290 292 291 292 293 294 294 295 294 294 294 293
298 297 296 294 292 294 293 292 292 292 295 293 289 289 287 287 287 285 285 285 286 285 285 286 289 287 291 290 291 291 291 292 292 293 293 293 293 292
297 294 293 292 292 291 291 290 290 292 291 291 290 289 290 289 289 289 288 287 286 286 286 283 290 288 291 291 291 291 291 291 291 292 292 292 292 292
291 291 291 290 289 290 289 287 288 288 290 291 290 290 290 290 290 288 286 285 285 285 284 284 287 285 287 287 288 289 290 290 290 291 291 291 291 291
288 287 286 289 289 290 288 287 286 287 286 286 286 288 289 288 289 286 286 284 284 283 285 283 285 284 284 286 284 285 285 286 288 290 291 291 291 289
288 287 287 289 288 289 290 286 287 287 287 286 286 286 286 285 286 286 286 286 285 284 285 284 284 283 282 283 284 284 283 284 285 287 289 290 291 290
286 287 288 289 288 290 289 289 290 287 286 286 285 285 285 286 287 286 286 286 286 286 287 285 283 282 283 282 281 285 283 283 282 283 284 286 288 288
287 288 288 288 287 287 287 287 286 286 285 285 285 285 286 287 286 286 285 286 286 286 286 284 283 283 282 280 280 281 282 284 283 282 283 282 282 283
288 288 287 287 286 285 285 285 287 286 285 285 285 285 285 284 284 285 283 284 283 284 285 285 284 283 282 282 281 280 281 279 283 282 281 281 281 281
286 286 285 286 285 286 286 286 287 286 285 286 285 285 284 284 284 284 283 282 281 280 282 285 285 284 283 282 280 281 281 281 282 282 281 278 280 280
285 285 285 285 285 285 285 285 285 284 284 283 283 283 282 282 282 283 282 281 280 280 280 282 283 282 282 282 283 280 281 280 282 282 281 278 278 281
285 285 284 284 283 284 282 282 281 281 282 282 281 281 281 281 281 281 281 281 281 281 283 283 282 281 279 277 283 285 281 282 282 281 280 279 278 278
283 282 281 281 280 281 280 280 279 278 279 278 279 278 279 279 280 280 281 281 281 281 281 282 282 281 280 279 279 281 283 281 281 280 279 280 278 276
278 278 278 278 277 276 275 275 274 274 273 273 274 274 275 275 275 275 276 275 275 277 276 278 280 279 280 281 278 278 281 281 280 278 279 277 275 274
274 273 272 272 272 272 272 271 271 271 270 270 270 270 270 270 270 270 271 271 272 273 274 276 278 278 277 276 275 275 276 278 278 278 279 278 276 272
271 271 270 269 269 269 268 269 268 268 267 267 267 267 267 267 268 269 269 270 270 270 270 271 273 274 274 273 272 272 273 273 274 273 274 275 276 277

GFSNE_sfc_thetae_141.txt.gz
Theta_e
322 321 320 320 320 319 319 317 313 308 309 307 305 302 301 300 297 297 297 297 299 301 303 305 304 306 305 305 305 305 305 305 305 304 303 302 301 301
320 319 318 318 319 319 318 318 316 313 309 311 304 300 298 296 296 296 297 295 296 298 300 302 303 305 303 303 303 303 303 303 303 303 303 302 302 301
318 317 317 318 318 318 318 317 314 313 309 309 302 298 296 295 295 294 294 294 295 295 297 299 301 302 303 302 302 302 302 302 301 302 302 302 301 301
317 317 316 316 317 317 314 312 310 309 306 305 299 294 293 294 294 293 292 293 292 294 296 297 299 301 301 301 300 300 301 300 300 300 300 300 300 300
317 316 316 314 310 308 308 306 306 303 303 299 297 293 292 292 289 290 290 290 291 292 294 296 297 299 300 300 300 299 299 298 299 298 298 298 298 298
315 314 310 309 307 305 303 302 301 298 296 292 290 290 291 289 288 287 287 287 287 288 290 292 293 295 297 298 298 297 297 297 297 297 297 297 296 296
305 305 304 301 298 301 301 301 299 295 290 290 289 290 289 287 286 287 285 286 286 286 286 287 288 289 290 294 293 294 295 296 296 296 296 296 296 295
300 299 299 291 294 294 295 295 297 297 290 290 289 288 289 287 286 286 285 284 284 287 285 285 286 286 288 289 291 293 294 295 295 295 295 295 295 295
300 298 295 294 292 295 293 293 292 294 295 293 289 289 287 287 286 285 285 285 285 285 285 284 285 285 287 287 292 293 293 294 294 294 294 295 295 294
298 296 293 292 291 290 290 289 289 290 291 291 290 288 289 287 287 287 286 286 285 284 285 283 284 284 286 287 293 293 293 293 293 293 293 293 293 293
291 292 291 290 290 291 287 286 286 287 290 291 291 291 291 290 290 286 285 285 285 285 284 283 283 282 282 285 284 290 290 291 291 292 292 292 292 292
287 287 286 289 289 290 287 286 286 286 286 286 286 288 288 288 289 286 286 284 284 283 282 281 281 281 279 281 281 281 281 286 287 289 290 291 291 288
287 286 286 290 290 290 290 286 287 286 287 285 286 286 286 285 285 285 285 285 284 284 284 283 281 279 278 279 280 280 279 280 280 283 287 289 290 290
287 287 287 289 289 290 288 290 290 287 286 285 285 285 286 286 286 285 285 285 285 285 285 284 282 282 281 280 280 282 281 280 279 279 280 285 286 287
287 288 289 289 290 289 289 290 286 286 285 285 285 285 285 285 284 284 284 285 284 284 285 285 283 282 282 280 279 279 280 279 281 281 280 280 280 281
287 288 288 287 287 285 285 286 286 286 285 285 284 285 285 284 284 284 283 282 282 283 284 285 283 283 281 281 281 280 281 279 279 280 280 281 280 280
286 286 285 285 284 284 284 284 283 283 283 283 284 283 283 283 282 283 282 281 280 279 280 282 283 284 283 281 279 279 279 279 280 279 278 279 279 279
285 284 284 284 283 283 283 283 284 282 283 283 282 282 281 281 281 279 282 281 279 279 280 280 279 280 281 280 283 278 278 277 278 277 279 278 277 276
285 284 284 284 284 284 283 283 281 281 281 280 281 281 277 277 276 277 277 276 275 275 275 276 276 275 275 274 276 285 278 277 278 278 277 277 277 277
285 284 284 284 282 281 280 279 279 279 279 278 279 278 277 277 276 274 274 273 274 272 274 274 275 274 274 273 274 277 283 278 276 276 275 274 276 281
283 282 282 280 279 279 277 275 275 274 273 272 272 271 273 272 270 271 272 271 270 268 270 272 273 275 275 274 272 273 274 281 278 275 274 273 271 273
279 277 277 276 275 275 274 272 271 270 270 270 269 268 267 267 267 266 265 265 265 266 267 270 271 271 269 271 270 270 271 270 275 278 278 276 272 269
275 274 272 272 272 271 271 269 269 269 268 267 266 265 264 264 265 264 263 262 262 262 262 264 265 266 266 268 269 269 266 268 271 268 269 275 275 275

GFSNE_sfc_thetae_144.txt.gz
Theta_e
322 322 321 322 320 318 318 317 313 307 307 309 307 302 301 300 298 298 297 297 299 301 302 303 305 307 308 308 309 310 310 309 308 308 308 307 305 305
322 320 320 320 318 317 317 317 316 313 309 311 306 303 300 298 297 296 296 295 297 298 299 300 302 304 306 306 308 307 308 308 307 307 306 306 305 305
320 318 318 318 317 316 316 316 315 315 310 309 303 299 297 297 296 295 294 293 294 296 297 298 299 300 303 303 306 305 305 306 305 305 304 304 304 304
318 316 316 315 315 316 315 315 314 314 311 308 300 295 295 295 295 293 292 293 291 294 295 297 297 298 299 301 303 303 303 303 302 302 303 302 302 303
317 315 315 314 313 314 314 313 310 305 304 300 298 294 293 292 289 290 289 288 290 292 294 295 295 296 298 299 301 301 300 300 300 300 300 300 300 300
315 315 315 314 313 311 310 307 303 300 297 292 289 290 290 287 287 287 286 286 286 288 290 291 292 293 294 296 297 297 298 298 299 299 298 298 298 298
311 312 311 307 302 305 305 301 300 294 289 289 287 287 287 286 286 286 285 285 286 286 285 285 285 287 289 292 293 294 295 296 296 297 297 296 296 296
307 303 302 293 297 298 298 298 299 297 290 290 288 288 288 288 286 285 285 284 285 285 284 280 282 284 285 285 291 293 294 295 295 296 296 296 296 296
304 300 296 295 293 295 295 295 294 296 296 293 289 289 287 287 286 285 285 285 285 283 282 282 281 284 282 285 291 292 293 293 294 294 294 295 295 294
302 299 296 293 293 291 290 289 288 289 291 291 290 289 289 287 287 287 286 285 284 283 284 282 277 279 280 281 290 292 292 292 292 293 293 293 293 293
294 295 294 291 291 292 288 286 286 286 291 292 292 292 292 291 288 286 284 284 282 283 283 281 278 278 278 277 279 289 289 288 288 289 289 290 291 291
287 288 288 290 291 292 288 287 286 285 286 286 286 288 289 288 290 286 285 284 284 282 281 278 277 276 275 276 277 277 278 285 287 288 288 288 288 285
287 286 286 291 291 291 290 287 287 286 287 286 285 285 285 285 285 285 285 285 284 283 284 281 277 280 280 280 277 277 277 279 281 282 285 286 287 286
287 286 285 290 291 291 288 290 290 287 286 285 285 285 284 284 285 285 285 284 285 284 285 284 281 281 280 279 278 277 278 278 278 279 279 283 285 285
287 287 289 290 290 291 290 290 286 286 285 285 285 284 283 284 283 283 283 283 283 283 284 284 283 282 281 279 278 279 280 278 278 277 278 279 280 280
288 288 288 288 288 287 287 288 286 286 285 285 284 283 283 282 282 283 281 281 281 281 283 283 283 282 280 280 280 279 278 275 277 278 278 277 279 280
286 286 285 284 283 282 283 284 284 285 284 284 283 282 282 282 281 282 279 277 274 275 276 278 280 280 281 278 278 275 276 274 278 278 277 277 277 278
285 284 283 283 282 282 282 283 283 282 283 281 282 281 280 278 278 275 275 275 274 273 274 275 275 274 275 274 282 278 272 273 276 277 273 274 276 276
285 284 283 283 283 283 282 282 282 282 282 281 280 279 277 275 276 275 277 276 277 276 276 273 269 268 272 273 272 282 276 276 276 275 274 273 274 275
285 284 284 284 283 283 282 281 280 279 279 278 277 276 277 276 274 274 274 271 272 270 266 266 267 269 267 266 271 273 281 276 274 273 272 270 273 278
284 284 284 283 282 281 279 278 278 277 276 275 275 275 273 273 271 271 269 268 266 263 262 264 268 270 267 263 262 263 268 277 275 271 271 271 269 268
284 281 281 279 278 277 276 275 273 272 272 272 271 270 269 269 269 267 264 263 262 263 263 264 266 264 261 263 262 263 265 265 271 275 276 275 270 267
278 277 276 275 275 274 273 272 272 271 270 270 268 268 267 267 266 265 262 260 259 258 257 258 260 260 260 261 260 262 260 261 263 265 265 274 275 276

GFSNE_sfc_thetae_147.txt.gz
Theta_e
321 320 319 319 319 318 317 317 313 308 307 309 307 307 303 302 299 301 299 298 301 302 303 304 304 306 307 308 310 311 311 311 313 312 311 311 311 310
321 321 320 320 320 320 318 318 316 313 309 311 309 306 300 299 297 298 297 296 298 299 299 300 302 303 304 305 307 309 308 309 311 310 311 309 309 310
321 320 320 321 320 318 317 317 316 315 311 312 307 301 298 298 296 296 295 295 294 295 297 298 299 300 301 302 303 306 305 308 307 308 308 307 308 307
320 319 319 318 318 317 316 315 315 315 313 310 302 297 298 297 297 295 293 294 293 293 296 297 298 298 298 299 300 302 302 304 304 304 304 303 304 305
320 319 318 317 314 316 315 314 314 313 313 307 299 295 294 293 290 290 291 290 290 292 294 295 295 296 297 298 299 300 300 301 302 301 301 300 301 301
320 318 317 315 315 314 313 313 312 309 301 295 290 292 290 288 288 287 286 286 287 288 290 291 292 292 294 295 295 295 297 299 300 300 299 299 299 299
316 315 316 311 304 310 312 311 307 302 291 291 288 287 287 286 287 287 286 286 286 286 285 285 284 284 285 290 290 292 295 296 297 297 297 297 297 297
314 313 313 298 301 301 302 304 306 302 295 293 289 289 288 289 286 286 286 285 285 284 283 284 282 284 284 283 289 292 293 293 293 294 295 295 295 295
315 311 306 302 298 303 297 297 297 298 298 296 290 290 288 288 287 285 285 285 285 285 283 282 282 283 282 284 290 292 291 292 292 293 293 293 293 293
313 309 305 298 297 296 294 292 291 292 293 292 291 289 291 289 288 288 286 286 284 284 284 281 279 280 280 280 289 291 290 290 289 289 289 289 290 290
307 305 304 298 294 295 291 289 287 286 292 293 293 293 293 291 289 287 285 284 282 283 283 282 278 278 277 278 280 289 288 288 288 288 288 288 288 288
287 291 290 295 292 294 291 288 286 286 286 286 287 290 290 290 290 285 285 283 284 282 282 279 277 276 276 277 277 277 279 286 286 286 287 287 287 281
291 288 289 292 293 293 292 289 289 287 288 286 286 285 286 286 286 285 285 285 284 283 284 282 280 280 279 276 278 277 278 279 279 280 284 285 286 284
291 290 289 292 292 292 289 291 291 288 286 285 285 284 284 284 285 285 285 285 285 284 285 284 282 281 280 279 277 277 279 279 276 277 278 283 285 285
290 289 290 291 291 291 290 291 287 286 286 285 285 285 285 285 285 283 283 283 283 283 284 284 283 282 281 279 278 276 277 276 277 276 277 278 278 279
288 288 289 289 290 289 287 288 286 286 286 286 285 285 284 283 282 283 282 282 281 280 283 283 283 281 279 278 275 272 274 273 275 277 277 277 278 279
286 286 286 286 285 286 286 286 285 285 285 285 284 283 282 282 282 282 281 278 273 273 275 277 279 280 279 277 278 277 273 271 275 275 273 274 275 276
286 285 285 285 284 284 284 284 285 285 285 284 284 283 282 281 281 278 277 274 272 273 273 275 274 273 271 273 281 278 274 271 273 273 271 271 271 273
286 285 285 284 283 283 284 284 283 284 284 283 283 282 281 280 279 278 278 277 273 273 272 272 271 269 265 265 270 279 270 271 271 268 270 268 271 272
287 285 284 284 283 283 283 283 283 282 282 281 281 280 280 279 278 278 278 272 271 268 266 265 269 267 264 266 264 268 277 268 265 265 266 267 271 277
286 286 285 285 284 284 283 283 282 281 281 280 279 279 279 278 277 276 274 272 269 269 268 267 269 270 266 263 260 262 267 275 272 264 265 265 263 264
286 285 285 285 284 284 282 281 281 279 278 278 277 277 276 276 274 272 271 269 268 268 268 267 266 264 261 262 259 260 262 264 270 273 275 272 263 263
285 285 285 283 282 281 280 278 277 277 276 275 274 273 271 271 270 270 268 267 266 265 265 264 264 262 260 260 259 259 258 258 260 262 265 273 274 274

GFSNE_sfc_thetae_150.txt.gz
Theta_e
318 318 318 318 318 318 316 314 310 307 308 308 308 308 306 303 301 303 302 299 304 305 304 304 305 306 307 307 309 311 312 313 313 312 313 314 313 313
319 319 318 319 319 319 317 316 315 313 309 309 310 309 303 301 297 300 299 296 299 300 300 301 301 302 303 304 305 307 310 311 312 310 312 312 312 312
319 319 319 320 319 319 318 318 316 316 312 315 311 306 301 299 295 297 295 296 296 297 298 299 299 300 300 301 302 304 306 308 309 308 310 309 309 309
318 318 318 319 318 319 318 317 316 317 314 311 307 300 301 299 299 296 294 295 294 295 296 297 298 298 298 299 299 300 301 303 303 306 306 306 305 305
319 319 319 318 317 318 318 317 317 315 314 313 307 296 295 294 291 291 292 292 292 293 295 296 296 296 297 297 298 298 299 300 301 302 302 302 302 302
319 320 319 318 318 317 317 316 315 313 311 310 293 293 291 288 288 289 287 287 287 289 290 291 292 292 294 295 295 294 295 297 299 300 300 300 300 300
319 319 319 316 307 314 316 315 313 311 302 302 290 288 288 286 288 287 288 287 286 286 286 286 286 285 284 288 288 291 293 295 296 297 297 297 297 297
318 318 319 301 303 302 303 305 311 311 301 302 296 290 289 289 287 287 287 286 286 283 285 285 284 283 283 282 288 291 292 292 293 293 294 294 294 294
318 317 315 313 302 310 302 301 302 303 305 304 295 294 290 289 288 286 286 285 284 284 285 284 283 283 281 284 289 291 291 291 291 290 290 290 290 290
318 317 314 310 305 308 307 302 301 299 300 300 302 294 295 291 292 289 287 285 285 284 284 282 280 281 279 279 290 291 289 289 289 289 289 289 289 288
315 315 314 310 300 298 298 294 290 288 293 294 295 295 294 293 290 288 286 286 283 283 283 279 279 278 277 278 280 289 288 288 287 287 287 287 287 287
294 298 294 304 295 297 300 293 290 288 287 287 288 291 291 290 290 289 287 286 282 281 283 282 277 278 276 278 278 277 279 285 285 286 286 286 286 281
297 292 292 295 294 296 299 294 294 288 289 287 287 287 287 287 287 286 287 286 281 280 282 280 278 278 275 275 277 277 278 278 279 281 284 285 286 284
297 297 294 294 295 295 294 295 292 289 287 286 286 285 286 286 285 285 285 285 285 283 284 283 280 280 279 277 276 276 276 277 277 278 278 282 284 284
298 295 293 293 294 294 294 291 288 288 287 286 286 285 286 286 285 285 284 284 284 285 285 284 283 282 281 278 275 275 277 278 277 276 277 278 277 278
289 290 291 292 292 291 288 289 288 288 287 287 286 286 285 284 284 283 282 282 281 281 283 284 283 282 280 278 276 272 275 277 274 275 275 276 277 278
287 287 287 287 286 286 287 286 286 286 286 287 286 284 284 283 282 283 282 281 280 280 279 279 280 280 278 276 276 278 276 276 273 274 272 274 273 275
286 286 286 286 286 286 286 285 285 285 286 286 285 285 283 282 282 282 280 280 278 276 275 274 276 274 273 271 281 277 276 270 271 272 270 267 268 271
290 287 286 286 286 286 286 285 284 286 286 286 285 284 283 282 281 280 280 278 276 273 271 275 274 272 263 266 271 279 270 269 268 266 269 266 267 271
289 287 287 286 286 286 286 285 285 285 285 285 284 284 283 282 280 279 279 278 277 272 271 271 271 270 269 269 267 269 276 267 264 263 265 265 270 275
287 286 287 286 286 286 286 286 285 285 285 285 284 283 282 281 280 279 279 278 275 271 272 270 271 272 268 267 266 266 267 274 270 263 262 262 262 263
287 286 286 286 285 285 285 285 285 284 283 283 282 282 281 280 279 278 277 274 275 273 271 269 268 267 266 267 265 263 264 265 268 272 273 271 264 261
286 286 286 286 286 285 285 284 283 283 282 282 280 280 279 278 277 276 275 275 271 270 268 266 266 265 265 264 263 262 260 261 261 262 263 271 272 273